Observation data for Wall on 11/08/2019      Previous  Date       Current Mesonet Observations  Soil Data  Daily Summary Page  Observations in Plain Language
KWA1 080600Z 01010KT 03/02 A3046 RMK A01 T00270024  RH  098%=      5-min Rain = 0
KWA1 080601Z 01011KT 03/02 A3045 RMK A01 T00270024  RH  098%=      5-min Rain = 0
KWA1 080602Z 01010KT 03/02 A3045 RMK A01 T00260023  RH  098%=      5-min Rain = 0
KWA1 080603Z 01010KT 03/02 A3045 RMK A01 T00260023  RH  098%=      5-min Rain = 0
KWA1 080604Z 01012KT 03/02 A3045 RMK A01 T00260024  RH  098%=      5-min Rain = 0
KWA1 080605Z 01010KT 03/02 A3045 RMK A01 T00250023  RH  098%=      5-min Rain = 0
KWA1 080606Z 00011KT 03/02 A3046 RMK A01 T00250023  RH  098%=      5-min Rain = 0
KWA1 080607Z 00011KT 03/02 A3046 RMK A01 T00250023  RH  098%=      5-min Rain = 0
KWA1 080608Z 36010KT 03/02 A3046 RMK A01 T00250023  RH  098%=      5-min Rain = 0
KWA1 080609Z 00012KT 03/02 A3046 RMK A01 T00250023  RH  098%=      5-min Rain = 0
KWA1 080610Z 00011KT 03/02 A3046 RMK A01 T00250023  RH  098%=      5-min Rain = 0
KWA1 080611Z 00010KT 03/02 A3046 RMK A01 T00260023  RH  098%=      5-min Rain = 0
KWA1 080612Z 00009KT 03/02 A3046 RMK A01 T00250023  RH  098%=      5-min Rain = 0
KWA1 080613Z 00010KT 03/02 A3046 RMK A01 T00250023  RH  098%=      5-min Rain = 0
KWA1 080614Z 01010KT 03/02 A3046 RMK A01 T00250023  RH  098%=      5-min Rain = 0
KWA1 080615Z 01010KT 03/02 A3046 RMK A01 T00260023  RH  098%=      5-min Rain = 0
KWA1 080616Z 01010KT 03/02 A3046 RMK A01 T00250023  RH  098%=      5-min Rain = 0
KWA1 080617Z 01009KT 03/02 A3046 RMK A01 T00250022  RH  098%=      5-min Rain = 0
KWA1 080618Z 01009KT 03/02 A3046 RMK A01 T00250022  RH  098%=      5-min Rain = 0
KWA1 080619Z 00008KT 03/02 A3046 RMK A01 T00250022  RH  098%=      5-min Rain = 0
KWA1 080620Z 01006KT 03/02 A3046 RMK A01 T00250023  RH  098%=      5-min Rain = 0
KWA1 080621Z 01007KT 03/02 A3046 RMK A01 T00260023  RH  098%=      5-min Rain = 0
KWA1 080622Z 00007KT 03/02 A3046 RMK A01 T00260024  RH  098%=      5-min Rain = 0
KWA1 080623Z 35008KT 03/02 A3046 RMK A01 T00260024  RH  098%=      5-min Rain = 0
KWA1 080624Z 36009KT 03/02 A3046 RMK A01 T00260024  RH  098%=      5-min Rain = 0
KWA1 080625Z 36008KT 03/02 A3046 RMK A01 T00260023  RH  098%=      5-min Rain = 0
KWA1 080626Z 36007KT 03/02 A3046 RMK A01 T00260023  RH  098%=      5-min Rain = 0
KWA1 080627Z 00008KT 03/02 A3046 RMK A01 T00260024  RH  098%=      5-min Rain = 0
KWA1 080628Z 01007KT 03/02 A3046 RMK A01 T00260024  RH  098%=      5-min Rain = 0
KWA1 080629Z 01009KT 03/02 A3046 RMK A01 T00260024  RH  098%=      5-min Rain = 0
KWA1 080630Z 01008KT 03/02 A3046 RMK A01 T00260024  RH  098%=      5-min Rain = 0
KWA1 080631Z 01010KT 03/02 A3046 RMK A01 T00260024  RH  098%=      5-min Rain = 0
KWA1 080632Z 01010KT 03/02 A3046 RMK A01 T00260023  RH  098%=      5-min Rain = 0
KWA1 080633Z 01009KT 03/02 A3046 RMK A01 T00260023  RH  098%=      5-min Rain = 0
KWA1 080634Z 01009KT 03/02 A3045 RMK A01 T00260023  RH  098%=      5-min Rain = 0
KWA1 080635Z 00008KT 03/02 A3045 RMK A01 T00260023  RH  098%=      5-min Rain = 0
KWA1 080636Z 01010KT 03/02 A3045 RMK A01 T00260023  RH  098%=      5-min Rain = 0
KWA1 080637Z 01009KT 03/02 A3045 RMK A01 T00260023  RH  098%=      5-min Rain = 0
KWA1 080638Z 01008KT 03/02 A3045 RMK A01 T00260024  RH  098%=      5-min Rain = 0
KWA1 080639Z 01007KT 03/02 A3045 RMK A01 T00260024  RH  098%=      5-min Rain = 0
KWA1 080640Z 01010KT 03/02 A3045 RMK A01 T00260024  RH  098%=      5-min Rain = 0
KWA1 080641Z 01009KT 03/02 A3045 RMK A01 T00260024  RH  098%=      5-min Rain = 0
KWA1 080642Z 01010KT 03/02 A3045 RMK A01 T00260024  RH  098%=      5-min Rain = 0
KWA1 080643Z 01009KT 03/02 A3045 RMK A01 T00260023  RH  098%=      5-min Rain = 0
KWA1 080644Z 00009KT 03/02 A3045 RMK A01 T00260024  RH  098%=      5-min Rain = 0
KWA1 080645Z 00007KT 03/02 A3045 RMK A01 T00260024  RH  098%=      5-min Rain = 0
KWA1 080646Z 00007KT 03/02 A3045 RMK A01 T00260024  RH  099%=      5-min Rain = 0
KWA1 080647Z 36006KT 03/02 A3045 RMK A01 T00260024  RH  099%=      5-min Rain = 0
KWA1 080648Z 00009KT 03/02 A3045 RMK A01 T00260024  RH  099%=      5-min Rain = 0
KWA1 080649Z 00009KT 03/02 A3045 RMK A01 T00260024  RH  099%=      5-min Rain = 0
KWA1 080650Z 36008KT 03/02 A3045 RMK A01 T00260024  RH  099%=      5-min Rain = 0
KWA1 080651Z 36008KT 03/02 A3045 RMK A01 T00260024  RH  099%=      5-min Rain = 0
KWA1 080652Z 35008KT 03/02 A3045 RMK A01 T00260024  RH  099%=      5-min Rain = 0
KWA1 080653Z 35008KT 03/02 A3045 RMK A01 T00260024  RH  099%=      5-min Rain = 0
KWA1 080654Z 35008KT 03/02 A3045 RMK A01 T00260024  RH  099%=      5-min Rain = 0
KWA1 080655Z 35008KT 03/02 A3045 RMK A01 T00260024  RH  099%=      5-min Rain = 0
KWA1 080656Z 34008KT 03/02 A3045 RMK A01 T00260024  RH  099%=      5-min Rain = 0
KWA1 080657Z 34009KT 03/03 A3045 RMK A01 T00260025  RH  099%=      5-min Rain = 0
KWA1 080658Z 35007KT 03/02 A3045 RMK A01 T00260024  RH  099%=      5-min Rain = 0
KWA1 080659Z 35009KT 03/03 A3045 RMK A01 T00270025  RH  099%=      5-min Rain = 0
KWA1 080700Z 35008KT 03/02 A3045 RMK A01 T00260024  RH  099%=      5-min Rain = 0
KWA1 080701Z 36007KT 03/02 A3045 RMK A01 T00260024  RH  099%=      5-min Rain = 0
KWA1 080702Z 35009KT 03/02 A3045 RMK A01 T00260024  RH  099%=      5-min Rain = 0
KWA1 080703Z 35009KT 03/02 A3045 RMK A01 T00260024  RH  099%=      5-min Rain = 0
KWA1 080704Z 35008KT 03/02 A3045 RMK A01 T00250023  RH  099%=      5-min Rain = 0
KWA1 080705Z 35008KT 03/02 A3045 RMK A01 T00260024  RH  099%=      5-min Rain = 0
KWA1 080706Z 36009KT 03/02 A3045 RMK A01 T00260024  RH  099%=      5-min Rain = 0
KWA1 080707Z 01010KT 03/02 A3045 RMK A01 T00260024  RH  099%=      5-min Rain = 0
KWA1 080708Z 01008KT 03/02 A3045 RMK A01 T00260024  RH  099%=      5-min Rain = 0
KWA1 080709Z 01008KT 03/02 A3045 RMK A01 T00260024  RH  099%=      5-min Rain = 0
KWA1 080710Z 01007KT 03/02 A3045 RMK A01 T00260024  RH  099%=      5-min Rain = 0
KWA1 080711Z 01008KT 03/02 A3045 RMK A01 T00260024  RH  099%=      5-min Rain = 0
KWA1 080712Z 00009KT 03/02 A3045 RMK A01 T00260024  RH  099%=      5-min Rain = 0
KWA1 080713Z 00009KT 03/02 A3045 RMK A01 T00260024  RH  099%=      5-min Rain = 0
KWA1 080714Z 00009KT 03/02 A3045 RMK A01 T00260024  RH  099%=      5-min Rain = 0
KWA1 080715Z 01009KT 03/02 A3045 RMK A01 T00260024  RH  099%=      5-min Rain = 0
KWA1 080716Z 01010KT 03/02 A3045 RMK A01 T00260024  RH  099%=      5-min Rain = 0
KWA1 080717Z 01008KT 03/02 A3044 RMK A01 T00260024  RH  099%=      5-min Rain = 0
KWA1 080718Z 01008KT 03/02 A3044 RMK A01 T00260024  RH  099%=      5-min Rain = 0
KWA1 080719Z 01009KT 03/03 A3044 RMK A01 T00270025  RH  099%=      5-min Rain = 0
KWA1 080720Z 01010KT 03/03 A3044 RMK A01 T00270025  RH  099%=      5-min Rain = 0
KWA1 080721Z 01011KT 03/03 A3045 RMK A01 T00260025  RH  099%=      5-min Rain = 0
KWA1 080722Z 01010KT 03/03 A3045 RMK A01 T00270025  RH  099%=      5-min Rain = 0
KWA1 080723Z 00012KT 03/03 A3045 RMK A01 T00270025  RH  099%=      5-min Rain = 0
KWA1 080724Z 00011KT 03/02 A3045 RMK A01 T00260024  RH  099%=      5-min Rain = 0
KWA1 080725Z 00011KT 03/02 A3045 RMK A01 T00260024  RH  099%=      5-min Rain = 0
KWA1 080726Z 00010KT 03/03 A3045 RMK A01 T00270025  RH  099%=      5-min Rain = 0
KWA1 080727Z 00008KT 03/03 A3045 RMK A01 T00270025  RH  099%=      5-min Rain = 0
KWA1 080728Z 01010KT 03/03 A3045 RMK A01 T00270025  RH  099%=      5-min Rain = 0
KWA1 080729Z 01009KT 03/03 A3045 RMK A01 T00270025  RH  099%=      5-min Rain = 0
KWA1 080730Z 01010KT 03/03 A3045 RMK A01 T00270025  RH  099%=      5-min Rain = 0
KWA1 080731Z 01010KT 03/03 A3045 RMK A01 T00270025  RH  099%=      5-min Rain = 0
KWA1 080732Z 01010KT 03/03 A3045 RMK A01 T00270025  RH  099%=      5-min Rain = 0
KWA1 080733Z 01008KT 03/03 A3044 RMK A01 T00270025  RH  099%=      5-min Rain = 0
KWA1 080734Z 01009KT 03/03 A3044 RMK A01 T00270025  RH  099%=      5-min Rain = 0
KWA1 080735Z 01011KT 03/03 A3044 RMK A01 T00270025  RH  099%=      5-min Rain = 0
KWA1 080736Z 01011KT 03/03 A3044 RMK A01 T00280026  RH  099%=      5-min Rain = 0
KWA1 080737Z 01010KT 03/03 A3044 RMK A01 T00280026  RH  099%=      5-min Rain = 0
KWA1 080738Z 01009KT 03/03 A3044 RMK A01 T00270025  RH  099%=      5-min Rain = 0
KWA1 080739Z 01011KT 03/03 A3044 RMK A01 T00280026  RH  099%=      5-min Rain = 0
KWA1 080740Z 01010KT 03/03 A3044 RMK A01 T00280026  RH  099%=      5-min Rain = 0
KWA1 080741Z 01010KT 03/03 A3044 RMK A01 T00280025  RH  099%=      5-min Rain = 0
KWA1 080742Z 01010KT 03/03 A3044 RMK A01 T00280026  RH  099%=      5-min Rain = 0
KWA1 080743Z 01009KT 03/03 A3044 RMK A01 T00280026  RH  099%=      5-min Rain = 0
KWA1 080744Z 02010KT 03/03 A3044 RMK A01 T00280026  RH  099%=      5-min Rain = 0
KWA1 080745Z 02010KT 03/03 A3044 RMK A01 T00280026  RH  099%=      5-min Rain = 0
KWA1 080746Z 01010KT 03/03 A3044 RMK A01 T00280026  RH  099%=      5-min Rain = 0
KWA1 080747Z 02010KT 03/03 A3044 RMK A01 T00280026  RH  099%=      5-min Rain = 0
KWA1 080748Z 02009KT 03/03 A3043 RMK A01 T00280026  RH  099%=      5-min Rain = 0
KWA1 080749Z 02009KT 03/03 A3043 RMK A01 T00280026  RH  099%=      5-min Rain = 0
KWA1 080750Z 02008KT 03/03 A3043 RMK A01 T00280026  RH  099%=      5-min Rain = 0
KWA1 080751Z 02009KT 03/03 A3043 RMK A01 T00280026  RH  099%=      5-min Rain = 0
KWA1 080752Z 02008KT 03/03 A3043 RMK A01 T00280026  RH  099%=      5-min Rain = 0
KWA1 080753Z 01007KT 03/03 A3044 RMK A01 T00280026  RH  099%=      5-min Rain = 0
KWA1 080754Z 02007KT 03/03 A3044 RMK A01 T00280026  RH  099%=      5-min Rain = 0
KWA1 080755Z 01007KT 03/03 A3044 RMK A01 T00280026  RH  099%=      5-min Rain = 0
KWA1 080756Z 01007KT 03/03 A3044 RMK A01 T00280026  RH  099%=      5-min Rain = 0
KWA1 080757Z 01008KT 03/03 A3044 RMK A01 T00280027  RH  099%=      5-min Rain = 0
KWA1 080758Z 01008KT 03/03 A3044 RMK A01 T00280026  RH  099%=      5-min Rain = 0
KWA1 080759Z 01006KT 03/03 A3044 RMK A01 T00280026  RH  099%=      5-min Rain = 0
KWA1 080800Z 01007KT 03/03 A3044 RMK A01 T00280027  RH  099%=      5-min Rain = 0
KWA1 080801Z 01007KT 03/03 A3044 RMK A01 T00290027  RH  099%=      5-min Rain = 0
KWA1 080802Z 00009KT 03/03 A3044 RMK A01 T00290027  RH  099%=      5-min Rain = 0
KWA1 080803Z 00008KT 03/03 A3044 RMK A01 T00290027  RH  099%=      5-min Rain = 0
KWA1 080804Z 00009KT 03/03 A3044 RMK A01 T00290027  RH  099%=      5-min Rain = 0
KWA1 080805Z 00009KT 03/03 A3044 RMK A01 T00280027  RH  099%=      5-min Rain = 0
KWA1 080806Z 01007KT 03/03 A3044 RMK A01 T00290027  RH  099%=      5-min Rain = 0
KWA1 080807Z 35007KT 03/03 A3044 RMK A01 T00290027  RH  099%=      5-min Rain = 0
KWA1 080808Z 35008KT 03/03 A3044 RMK A01 T00290028  RH  099%=      5-min Rain = 0
KWA1 080809Z 35008KT 03/03 A3044 RMK A01 T00290027  RH  099%=      5-min Rain = 0
KWA1 080810Z 35008KT 03/03 A3044 RMK A01 T00290027  RH  099%=      5-min Rain = 0
KWA1 080811Z 35008KT 03/03 A3044 RMK A01 T00290027  RH  099%=      5-min Rain = 0
KWA1 080812Z 35008KT 03/03 A3044 RMK A01 T00290028  RH  099%=      5-min Rain = 0
KWA1 080813Z 35007KT 03/03 A3044 RMK A01 T00290028  RH  099%=      5-min Rain = 0
KWA1 080814Z 35008KT 03/03 A3044 RMK A01 T00300028  RH  099%=      5-min Rain = 0
KWA1 080815Z 36010KT 03/03 A3044 RMK A01 T00300028  RH  099%=      5-min Rain = 0
KWA1 080816Z 36009KT 03/03 A3044 RMK A01 T00290028  RH  099%=      5-min Rain = 0
KWA1 080817Z 00008KT 03/03 A3044 RMK A01 T00290028  RH  099%=      5-min Rain = 0
KWA1 080818Z 35008KT 03/03 A3044 RMK A01 T00290028  RH  099%=      5-min Rain = 0
KWA1 080819Z 35009KT 03/03 A3044 RMK A01 T00290028  RH  099%=      5-min Rain = 0
KWA1 080820Z 34011KT 03/03 A3044 RMK A01 T00290027  RH  099%=      5-min Rain = 0
KWA1 080821Z 34010KT 03/03 A3044 RMK A01 T00280027  RH  099%=      5-min Rain = 0
KWA1 080822Z 34009KT 03/03 A3044 RMK A01 T00290027  RH  099%=      5-min Rain = 0
KWA1 080823Z 35010KT 03/03 A3044 RMK A01 T00290027  RH  099%=      5-min Rain = 0
KWA1 080824Z 36011KT 03/03 A3044 RMK A01 T00280026  RH  099%=      5-min Rain = 0
KWA1 080825Z 36011KT 03/03 A3044 RMK A01 T00270025  RH  099%=      5-min Rain = 0
KWA1 080826Z 36010KT 03/02 A3044 RMK A01 T00260024  RH  099%=      5-min Rain = 0
KWA1 080827Z 35010KT 03/02 A3044 RMK A01 T00260024  RH  099%=      5-min Rain = 0
KWA1 080828Z 36010KT 03/02 A3044 RMK A01 T00260024  RH  099%=      5-min Rain = 0
KWA1 080829Z 36010KT 03/02 A3044 RMK A01 T00260024  RH  099%=      5-min Rain = 0
KWA1 080830Z 35010KT 03/02 A3044 RMK A01 T00260024  RH  099%=      5-min Rain = 0
KWA1 080831Z 35011KT 03/03 A3044 RMK A01 T00260025  RH  099%=      5-min Rain = 0
KWA1 080832Z 36011KT 03/02 A3044 RMK A01 T00250024  RH  099%=      5-min Rain = 0
KWA1 080833Z 36010KT 03/02 A3044 RMK A01 T00250024  RH  099%=      5-min Rain = 0
KWA1 080834Z 36011KT 03/02 A3044 RMK A01 T00250023  RH  099%=      5-min Rain = 0
KWA1 080835Z 36009KT 03/02 A3044 RMK A01 T00250023  RH  099%=      5-min Rain = 0
KWA1 080836Z 36010KT 03/02 A3044 RMK A01 T00250024  RH  099%=      5-min Rain = 0
KWA1 080837Z 35010KT 03/02 A3044 RMK A01 T00250024  RH  099%=      5-min Rain = 0
KWA1 080838Z 35010KT 03/02 A3044 RMK A01 T00250024  RH  099%=      5-min Rain = 0
KWA1 080839Z 35010KT 02/02 A3044 RMK A01 T00240023  RH  099%=      5-min Rain = 0
KWA1 080840Z 35010KT 02/02 A3044 RMK A01 T00240023  RH  099%=      5-min Rain = 0
KWA1 080841Z 00009KT 02/02 A3044 RMK A01 T00240023  RH  099%=      5-min Rain = 0
KWA1 080842Z 35009KT 02/02 A3044 RMK A01 T00240023  RH  099%=      5-min Rain = 0
KWA1 080843Z 36010KT 02/02 A3044 RMK A01 T00240023  RH  099%=      5-min Rain = 0
KWA1 080844Z 36010KT 02/02 A3044 RMK A01 T00240023  RH  099%=      5-min Rain = 0
KWA1 080845Z 35009KT 02/02 A3044 RMK A01 T00240023  RH  099%=      5-min Rain = 0
KWA1 080846Z 36009KT 02/02 A3044 RMK A01 T00240023  RH  099%=      5-min Rain = 0
KWA1 080847Z 34009KT 02/02 A3044 RMK A01 T00240023  RH  099%=      5-min Rain = 0
KWA1 080848Z 35010KT 02/02 A3044 RMK A01 T00240023  RH  099%=      5-min Rain = 0
KWA1 080849Z 35009KT 02/02 A3044 RMK A01 T00240023  RH  099%=      5-min Rain = 0
KWA1 080850Z 35010KT 02/02 A3044 RMK A01 T00240023  RH  099%=      5-min Rain = 0
KWA1 080851Z 35010KT 02/02 A3044 RMK A01 T00240023  RH  099%=      5-min Rain = 0
KWA1 080852Z 36008KT 02/02 A3044 RMK A01 T00240024  RH  099%=      5-min Rain = 0
KWA1 080853Z 00010KT 02/02 A3044 RMK A01 T00240024  RH  100%=      5-min Rain = 0
KWA1 080854Z 36010KT 02/02 A3044 RMK A01 T00240024  RH  100%=      5-min Rain = 0
KWA1 080855Z 36011KT 02/02 A3044 RMK A01 T00240024  RH  099%=      5-min Rain = 0
KWA1 080856Z 35011KT 02/02 A3044 RMK A01 T00240023  RH  099%=      5-min Rain = 0
KWA1 080857Z 00011KT 02/02 A3044 RMK A01 T00240023  RH  099%=      5-min Rain = 0
KWA1 080858Z 01009KT 02/02 A3044 RMK A01 T00230023  RH  100%=      5-min Rain = 0
KWA1 080859Z 01010KT 02/02 A3044 RMK A01 T00230023  RH  100%=      5-min Rain = 0
KWA1 080900Z 01009KT 02/02 A3044 RMK A01 T00230023  RH  100%=      5-min Rain = 0
KWA1 080901Z 02010KT 02/02 A3044 RMK A01 T00230022  RH  100%=      5-min Rain = 0
KWA1 080902Z 01011KT 02/02 A3044 RMK A01 T00230022  RH  100%=      5-min Rain = 0
KWA1 080903Z 01010KT 02/02 A3044 RMK A01 T00230022  RH  100%=      5-min Rain = 0
KWA1 080904Z 01009KT 02/02 A3044 RMK A01 T00230022  RH  100%=      5-min Rain = 0
KWA1 080905Z 00009KT 02/02 A3044 RMK A01 T00230022  RH  100%=      5-min Rain = 0
KWA1 080906Z 36010KT 02/02 A3044 RMK A01 T00230022  RH  100%=      5-min Rain = 0
KWA1 080907Z 35010KT 02/02 A3044 RMK A01 T00230022  RH  100%=      5-min Rain = 0
KWA1 080908Z 35011KT 02/02 A3044 RMK A01 T00230023  RH  100%=      5-min Rain = 0
KWA1 080909Z 36010KT 02/02 A3044 RMK A01 T00230022  RH  100%=      5-min Rain = 0
KWA1 080910Z 36009KT 02/02 A3044 RMK A01 T00230022  RH  100%=      5-min Rain = 0
KWA1 080911Z 36011KT 02/02 A3044 RMK A01 T00220022  RH  100%=      5-min Rain = 0
KWA1 080912Z 36010KT 02/02 A3044 RMK A01 T00220022  RH  100%=      5-min Rain = 0
KWA1 080913Z 00008KT 02/02 A3044 RMK A01 T00230022  RH  100%=      5-min Rain = 0
KWA1 080914Z 00009KT 02/02 A3044 RMK A01 T00220022  RH  100%=      5-min Rain = 0
KWA1 080915Z 00008KT 02/02 A3044 RMK A01 T00220022  RH  100%=      5-min Rain = 0
KWA1 080916Z 01008KT 02/02 A3044 RMK A01 T00230022  RH  100%=      5-min Rain = 0
KWA1 080917Z 00008KT 02/02 A3044 RMK A01 T00230022  RH  100%=      5-min Rain = 0
KWA1 080918Z 00010KT 02/02 A3044 RMK A01 T00230022  RH  100%=      5-min Rain = 0
KWA1 080919Z 00009KT 02/02 A3044 RMK A01 T00230022  RH  100%=      5-min Rain = 0
KWA1 080920Z 36010KT 02/02 A3044 RMK A01 T00230022  RH  100%=      5-min Rain = 0
KWA1 080921Z 35010KT 02/02 A3044 RMK A01 T00220022  RH  099%=      5-min Rain = 0
KWA1 080922Z 35011KT 02/02 A3044 RMK A01 T00220021  RH  099%=      5-min Rain = 0
KWA1 080923Z 35010KT 02/02 A3044 RMK A01 T00220021  RH  099%=      5-min Rain = 0
KWA1 080924Z 35009KT 02/02 A3044 RMK A01 T00220021  RH  099%=      5-min Rain = 0
KWA1 080925Z 35008KT 02/02 A3044 RMK A01 T00210020  RH  099%=      5-min Rain = 0
KWA1 080926Z 00008KT 02/02 A3044 RMK A01 T00210020  RH  099%=      5-min Rain = 0
KWA1 080927Z 36009KT 02/02 A3044 RMK A01 T00210021  RH  099%=      5-min Rain = 0
KWA1 080928Z 35010KT 02/02 A3044 RMK A01 T00220021  RH  099%=      5-min Rain = 0
KWA1 080929Z 36008KT 02/02 A3044 RMK A01 T00220021  RH  099%=      5-min Rain = 0
KWA1 080930Z 35009KT 02/02 A3044 RMK A01 T00210020  RH  099%=      5-min Rain = 0
KWA1 080931Z 35010KT 02/02 A3044 RMK A01 T00220021  RH  099%=      5-min Rain = 0
KWA1 080932Z 35008KT 02/02 A3044 RMK A01 T00210020  RH  099%=      5-min Rain = 0
KWA1 080933Z 36007KT 02/02 A3044 RMK A01 T00210020  RH  099%=      5-min Rain = 0
KWA1 080934Z 35008KT 02/02 A3043 RMK A01 T00220021  RH  099%=      5-min Rain = 0
KWA1 080935Z 00008KT 02/02 A3043 RMK A01 T00220021  RH  099%=      5-min Rain = 0
KWA1 080936Z 01007KT 02/02 A3043 RMK A01 T00220021  RH  099%=      5-min Rain = 0
KWA1 080937Z 01007KT 02/02 A3043 RMK A01 T00220021  RH  099%=      5-min Rain = 0
KWA1 080938Z 00011KT 02/02 A3043 RMK A01 T00220021  RH  099%=      5-min Rain = 0
KWA1 080939Z 01011KT 02/02 A3043 RMK A01 T00220021  RH  099%=      5-min Rain = 0
KWA1 080940Z 01009KT 02/02 A3043 RMK A01 T00210020  RH  099%=      5-min Rain = 0
KWA1 080941Z 01007KT 02/02 A3043 RMK A01 T00210020  RH  099%=      5-min Rain = 0
KWA1 080942Z 01007KT 02/02 A3043 RMK A01 T00210020  RH  099%=      5-min Rain = 0
KWA1 080943Z 01007KT 02/02 A3043 RMK A01 T00220021  RH  099%=      5-min Rain = 0
KWA1 080944Z 01009KT 02/02 A3044 RMK A01 T00220021  RH  099%=      5-min Rain = 0
KWA1 080945Z 00008KT 02/02 A3044 RMK A01 T00220021  RH  099%=      5-min Rain = 0
KWA1 080946Z 00009KT 02/02 A3044 RMK A01 T00220021  RH  099%=      5-min Rain = 0
KWA1 080947Z 36007KT 02/02 A3044 RMK A01 T00220021  RH  099%=      5-min Rain = 0
KWA1 080948Z 36008KT 02/02 A3044 RMK A01 T00220021  RH  099%=      5-min Rain = 0
KWA1 080949Z 00007KT 02/02 A3044 RMK A01 T00220021  RH  099%=      5-min Rain = 0
KWA1 080950Z 36009KT 02/02 A3044 RMK A01 T00230022  RH  099%=      5-min Rain = 0
KWA1 080951Z 00009KT 02/02 A3044 RMK A01 T00230021  RH  099%=      5-min Rain = 0
KWA1 080952Z 35010KT 02/02 A3044 RMK A01 T00230021  RH  099%=      5-min Rain = 0
KWA1 080953Z 35008KT 02/02 A3044 RMK A01 T00220020  RH  099%=      5-min Rain = 0
KWA1 080954Z 36010KT 02/02 A3044 RMK A01 T00220020  RH  099%=      5-min Rain = 0
KWA1 080955Z 35008KT 02/02 A3044 RMK A01 T00220020  RH  099%=      5-min Rain = 0
KWA1 080956Z 35008KT 02/02 A3044 RMK A01 T00220020  RH  099%=      5-min Rain = 0
KWA1 080957Z 36010KT 02/02 A3044 RMK A01 T00220020  RH  099%=      5-min Rain = 0
KWA1 080958Z 35009KT 02/02 A3044 RMK A01 T00220020  RH  099%=      5-min Rain = 0
KWA1 080959Z 35007KT 02/02 A3044 RMK A01 T00220020  RH  099%=      5-min Rain = 0
KWA1 081000Z 36009KT 02/02 A3044 RMK A01 T00220021  RH  099%=      5-min Rain = 0
KWA1 081001Z 35011KT 02/02 A3044 RMK A01 T00220020  RH  099%=      5-min Rain = 0
KWA1 081002Z 35010KT 02/02 A3044 RMK A01 T00220020  RH  099%=      5-min Rain = 0
KWA1 081003Z 35010KT 02/02 A3044 RMK A01 T00220019  RH  099%=      5-min Rain = 0
KWA1 081004Z 36009KT 02/02 A3044 RMK A01 T00220020  RH  099%=      5-min Rain = 0
KWA1 081005Z 36009KT 02/02 A3044 RMK A01 T00220020  RH  099%=      5-min Rain = 0
KWA1 081006Z 00009KT 02/02 A3044 RMK A01 T00220020  RH  099%=      5-min Rain = 0
KWA1 081007Z 35009KT 02/02 A3044 RMK A01 T00220020  RH  098%=      5-min Rain = 0
KWA1 081008Z 01009KT 02/02 A3044 RMK A01 T00220020  RH  098%=      5-min Rain = 0
KWA1 081009Z 36009KT 02/02 A3043 RMK A01 T00220020  RH  098%=      5-min Rain = 0
KWA1 081010Z 01011KT 02/02 A3043 RMK A01 T00220020  RH  098%=      5-min Rain = 0
KWA1 081011Z 00010KT 02/02 A3043 RMK A01 T00220019  RH  098%=      5-min Rain = 0
KWA1 081012Z 36009KT 02/02 A3043 RMK A01 T00220019  RH  098%=      5-min Rain = 0
KWA1 081013Z 35009KT 02/02 A3043 RMK A01 T00220020  RH  098%=      5-min Rain = 0
KWA1 081014Z 35009KT 02/02 A3043 RMK A01 T00230020  RH  098%=      5-min Rain = 0
KWA1 081015Z 35009KT 02/02 A3043 RMK A01 T00230020  RH  098%=      5-min Rain = 0
KWA1 081016Z 35010KT 02/02 A3043 RMK A01 T00220020  RH  098%=      5-min Rain = 0
KWA1 081017Z 36009KT 02/02 A3043 RMK A01 T00220019  RH  098%=      5-min Rain = 0
KWA1 081018Z 00010KT 02/02 A3043 RMK A01 T00220019  RH  098%=      5-min Rain = 0
KWA1 081019Z 00009KT 02/02 A3043 RMK A01 T00220019  RH  098%=      5-min Rain = 0
KWA1 081020Z 36007KT 02/02 A3043 RMK A01 T00220019  RH  098%=      5-min Rain = 0
KWA1 081021Z 35007KT 02/02 A3043 RMK A01 T00220019  RH  098%=      5-min Rain = 0
KWA1 081022Z 36009KT 02/02 A3043 RMK A01 T00220019  RH  098%=      5-min Rain = 0
KWA1 081023Z 00010KT 02/02 A3043 RMK A01 T00220019  RH  098%=      5-min Rain = 0
KWA1 081024Z 00009KT 02/02 A3042 RMK A01 T00220018  RH  098%=      5-min Rain = 0
KWA1 081025Z 00009KT 02/02 A3043 RMK A01 T00220018  RH  098%=      5-min Rain = 0
KWA1 081026Z 00009KT 02/02 A3043 RMK A01 T00220018  RH  098%=      5-min Rain = 0
KWA1 081027Z 01008KT 02/02 A3043 RMK A01 T00220018  RH  098%=      5-min Rain = 0
KWA1 081028Z 36007KT 02/02 A3043 RMK A01 T00220019  RH  098%=      5-min Rain = 0
KWA1 081029Z 35007KT 02/02 A3042 RMK A01 T00220019  RH  098%=      5-min Rain = 0
KWA1 081030Z 35007KT 02/02 A3042 RMK A01 T00220019  RH  098%=      5-min Rain = 0
KWA1 081031Z 36008KT 02/02 A3042 RMK A01 T00230019  RH  098%=      5-min Rain = 0
KWA1 081032Z 00009KT 02/02 A3042 RMK A01 T00220019  RH  098%=      5-min Rain = 0
KWA1 081033Z 36008KT 02/02 A3042 RMK A01 T00220019  RH  098%=      5-min Rain = 0
KWA1 081034Z 00009KT 02/02 A3042 RMK A01 T00220019  RH  098%=      5-min Rain = 0
KWA1 081035Z 00008KT 02/02 A3043 RMK A01 T00220019  RH  098%=      5-min Rain = 0
KWA1 081036Z 00008KT 02/02 A3043 RMK A01 T00220019  RH  098%=      5-min Rain = 0
KWA1 081037Z 36008KT 02/02 A3043 RMK A01 T00220019  RH  098%=      5-min Rain = 0
KWA1 081038Z 35009KT 02/02 A3043 RMK A01 T00230020  RH  098%=      5-min Rain = 0
KWA1 081039Z 35009KT 02/02 A3043 RMK A01 T00230020  RH  098%=      5-min Rain = 0
KWA1 081040Z 35008KT 02/02 A3043 RMK A01 T00230019  RH  098%=      5-min Rain = 0
KWA1 081041Z 36007KT 02/02 A3043 RMK A01 T00220019  RH  098%=      5-min Rain = 0
KWA1 081042Z 35009KT 02/02 A3043 RMK A01 T00220019  RH  098%=      5-min Rain = 0
KWA1 081043Z 00008KT 02/02 A3043 RMK A01 T00230019  RH  097%=      5-min Rain = 0
KWA1 081044Z 36009KT 02/02 A3043 RMK A01 T00230019  RH  097%=      5-min Rain = 0
KWA1 081045Z 36008KT 02/02 A3043 RMK A01 T00230019  RH  097%=      5-min Rain = 0
KWA1 081046Z 35008KT 02/02 A3043 RMK A01 T00220019  RH  097%=      5-min Rain = 0
KWA1 081047Z 35008KT 02/02 A3043 RMK A01 T00220019  RH  097%=      5-min Rain = 0
KWA1 081048Z 35009KT 02/02 A3043 RMK A01 T00230019  RH  097%=      5-min Rain = 0
KWA1 081049Z 35008KT 02/02 A3043 RMK A01 T00230019  RH  097%=      5-min Rain = 0
KWA1 081050Z 36009KT 02/02 A3043 RMK A01 T00230019  RH  097%=      5-min Rain = 0
KWA1 081051Z 00009KT 02/02 A3043 RMK A01 T00230019  RH  097%=      5-min Rain = 0
KWA1 081052Z 02009KT 02/02 A3043 RMK A01 T00230019  RH  097%=      5-min Rain = 0
KWA1 081053Z 02009KT 02/02 A3043 RMK A01 T00240020  RH  097%=      5-min Rain = 0
KWA1 081054Z 01009KT 02/02 A3043 RMK A01 T00230019  RH  097%=      5-min Rain = 0
KWA1 081055Z 01010KT 02/02 A3043 RMK A01 T00230019  RH  097%=      5-min Rain = 0
KWA1 081056Z 01010KT 02/02 A3043 RMK A01 T00230019  RH  097%=      5-min Rain = 0
KWA1 081057Z 01011KT 02/02 A3043 RMK A01 T00230019  RH  097%=      5-min Rain = 0
KWA1 081058Z 01011KT 02/02 A3042 RMK A01 T00220018  RH  097%=      5-min Rain = 0
KWA1 081059Z 02011KT 02/02 A3042 RMK A01 T00220017  RH  097%=      5-min Rain = 0
KWA1 081100Z 02009KT 02/02 A3043 RMK A01 T00210017  RH  097%=      5-min Rain = 0
KWA1 081101Z 02009KT 02/02 A3043 RMK A01 T00220017  RH  097%=      5-min Rain = 0
KWA1 081102Z 01009KT 02/02 A3043 RMK A01 T00220017  RH  097%=      5-min Rain = 0
KWA1 081103Z 01008KT 02/02 A3043 RMK A01 T00220017  RH  097%=      5-min Rain = 0
KWA1 081104Z 01008KT 02/02 A3043 RMK A01 T00210017  RH  097%=      5-min Rain = 0
KWA1 081105Z 01008KT 02/02 A3043 RMK A01 T00210017  RH  097%=      5-min Rain = 0
KWA1 081106Z 01007KT 02/02 A3043 RMK A01 T00220017  RH  097%=      5-min Rain = 0
KWA1 081107Z 01007KT 02/02 A3043 RMK A01 T00220017  RH  097%=      5-min Rain = 0
KWA1 081108Z 01007KT 02/02 A3043 RMK A01 T00220017  RH  097%=      5-min Rain = 0
KWA1 081109Z 01008KT 02/02 A3043 RMK A01 T00220017  RH  096%=      5-min Rain = 0
KWA1 081110Z 01007KT 02/02 A3043 RMK A01 T00220017  RH  096%=      5-min Rain = 0
KWA1 081111Z 01008KT 02/02 A3043 RMK A01 T00220017  RH  096%=      5-min Rain = 0
KWA1 081112Z 01007KT 02/02 A3043 RMK A01 T00220016  RH  096%=      5-min Rain = 0
KWA1 081113Z 00007KT 02/02 A3043 RMK A01 T00220016  RH  096%=      5-min Rain = 0
KWA1 081114Z 01009KT 02/02 A3043 RMK A01 T00220017  RH  096%=      5-min Rain = 0
KWA1 081115Z 02007KT 02/02 A3043 RMK A01 T00220017  RH  096%=      5-min Rain = 0
KWA1 081116Z 02007KT 02/02 A3043 RMK A01 T00230017  RH  096%=      5-min Rain = 0
KWA1 081117Z 01008KT 02/02 A3043 RMK A01 T00230017  RH  096%=      5-min Rain = 0
KWA1 081118Z 01009KT 02/02 A3042 RMK A01 T00230017  RH  096%=      5-min Rain = 0
KWA1 081119Z 02006KT 02/02 A3042 RMK A01 T00220016  RH  096%=      5-min Rain = 0
KWA1 081120Z 02007KT 02/02 A3042 RMK A01 T00230017  RH  096%=      5-min Rain = 0
KWA1 081121Z 02007KT 02/02 A3042 RMK A01 T00230017  RH  096%=      5-min Rain = 0.01
KWA1 081122Z 01007KT 02/02 A3043 RMK A01 T00230017  RH  096%=      5-min Rain = 0
KWA1 081123Z 01007KT 02/02 A3043 RMK A01 T00230017  RH  096%=      5-min Rain = 0
KWA1 081124Z 02007KT 02/02 A3043 RMK A01 T00230017  RH  096%=      5-min Rain = 0
KWA1 081125Z 02009KT 02/02 A3043 RMK A01 T00230017  RH  096%=      5-min Rain = 0
KWA1 081126Z 01009KT 02/02 A3043 RMK A01 T00230017  RH  096%=      5-min Rain = 0
KWA1 081127Z 01008KT 02/02 A3043 RMK A01 T00230016  RH  096%=      5-min Rain = 0
KWA1 081128Z 01008KT 02/02 A3043 RMK A01 T00220016  RH  096%=      5-min Rain = 0
KWA1 081129Z 01008KT 02/02 A3043 RMK A01 T00230016  RH  096%=      5-min Rain = 0
KWA1 081130Z 01009KT 02/02 A3043 RMK A01 T00230017  RH  096%=      5-min Rain = 0
KWA1 081131Z 01009KT 02/02 A3043 RMK A01 T00230016  RH  095%=      5-min Rain = 0
KWA1 081132Z 01008KT 02/02 A3043 RMK A01 T00230016  RH  095%=      5-min Rain = 0
KWA1 081133Z 00009KT 02/02 A3043 RMK A01 T00230015  RH  095%=      5-min Rain = 0
KWA1 081134Z 01009KT 02/02 A3043 RMK A01 T00230015  RH  095%=      5-min Rain = 0
KWA1 081135Z 01008KT 02/02 A3043 RMK A01 T00230015  RH  095%=      5-min Rain = 0
KWA1 081136Z 00007KT 02/02 A3043 RMK A01 T00230015  RH  095%=      5-min Rain = 0
KWA1 081137Z 00007KT 02/02 A3044 RMK A01 T00230016  RH  095%=      5-min Rain = 0
KWA1 081138Z 00008KT 02/02 A3044 RMK A01 T00230017  RH  095%=      5-min Rain = 0
KWA1 081139Z 01008KT 02/02 A3044 RMK A01 T00230017  RH  095%=      5-min Rain = 0
KWA1 081140Z 01007KT 02/02 A3044 RMK A01 T00240017  RH  095%=      5-min Rain = 0
KWA1 081141Z 01008KT 02/02 A3044 RMK A01 T00240017  RH  095%=      5-min Rain = 0
KWA1 081142Z 01009KT 02/02 A3044 RMK A01 T00240017  RH  095%=      5-min Rain = 0
KWA1 081143Z 01009KT 02/02 A3044 RMK A01 T00230016  RH  095%=      5-min Rain = 0
KWA1 081144Z 01009KT 02/02 A3043 RMK A01 T00230016  RH  095%=      5-min Rain = 0
KWA1 081145Z 01008KT 02/02 A3044 RMK A01 T00230016  RH  095%=      5-min Rain = 0
KWA1 081146Z 01008KT 02/02 A3044 RMK A01 T00230016  RH  095%=      5-min Rain = 0
KWA1 081147Z 01009KT 02/02 A3044 RMK A01 T00230017  RH  095%=      5-min Rain = 0
KWA1 081148Z 02009KT 02/02 A3044 RMK A01 T00230016  RH  095%=      5-min Rain = 0
KWA1 081149Z 01007KT 02/02 A3044 RMK A01 T00230016  RH  095%=      5-min Rain = 0
KWA1 081150Z 01008KT 02/02 A3044 RMK A01 T00240017  RH  095%=      5-min Rain = 0
KWA1 081151Z 01008KT 02/02 A3044 RMK A01 T00240017  RH  095%=      5-min Rain = 0
KWA1 081152Z 01009KT 02/02 A3044 RMK A01 T00240017  RH  095%=      5-min Rain = 0
KWA1 081153Z 01009KT 02/02 A3044 RMK A01 T00240017  RH  095%=      5-min Rain = 0
KWA1 081154Z 01008KT 02/02 A3044 RMK A01 T00230017  RH  095%=      5-min Rain = 0
KWA1 081155Z 01008KT 02/02 A3044 RMK A01 T00230017  RH  095%=      5-min Rain = 0
KWA1 081156Z 01009KT 02/02 A3044 RMK A01 T00230017  RH  096%=      5-min Rain = 0
KWA1 081157Z 01009KT 02/02 A3044 RMK A01 T00240017  RH  096%=      5-min Rain = 0
KWA1 081158Z 01007KT 02/02 A3043 RMK A01 T00230017  RH  096%=      5-min Rain = 0
KWA1 081159Z 01007KT 02/02 A3043 RMK A01 T00240017  RH  096%=      5-min Rain = 0
KWA1 081200Z 01008KT 02/02 A3043 RMK A01 T00230017  RH  096%=      5-min Rain = 0
KWA1 081201Z 01009KT 02/02 A3043 RMK A01 T00230017  RH  096%=      5-min Rain = 0.01
KWA1 081202Z 01009KT 02/02 A3043 RMK A01 T00240017  RH  096%=      5-min Rain = 0
KWA1 081203Z 02008KT 02/02 A3043 RMK A01 T00240017  RH  096%=      5-min Rain = 0
KWA1 081204Z 01008KT 02/02 A3043 RMK A01 T00230017  RH  096%=      5-min Rain = 0
KWA1 081205Z 01008KT 02/02 A3043 RMK A01 T00240017  RH  096%=      5-min Rain = 0
KWA1 081206Z 02009KT 02/02 A3043 RMK A01 T00230017  RH  096%=      5-min Rain = 0
KWA1 081207Z 02007KT 02/02 A3043 RMK A01 T00230017  RH  096%=      5-min Rain = 0.01
KWA1 081208Z 02006KT 02/02 A3043 RMK A01 T00230017  RH  096%=      5-min Rain = 0
KWA1 081209Z 03007KT 02/02 A3043 RMK A01 T00230018  RH  096%=      5-min Rain = 0
KWA1 081210Z 03007KT 02/02 A3043 RMK A01 T00230018  RH  096%=      5-min Rain = 0
KWA1 081211Z 02006KT 02/02 A3043 RMK A01 T00230018  RH  096%=      5-min Rain = 0
KWA1 081212Z 02008KT 02/02 A3043 RMK A01 T00230018  RH  096%=      5-min Rain = 0
KWA1 081213Z 02007KT 02/02 A3043 RMK A01 T00230017  RH  096%=      5-min Rain = 0
KWA1 081214Z 02008KT 02/02 A3043 RMK A01 T00230017  RH  096%=      5-min Rain = 0
KWA1 081215Z 02006KT 02/02 A3043 RMK A01 T00220017  RH  096%=      5-min Rain = 0
KWA1 081216Z 02006KT 02/02 A3043 RMK A01 T00230018  RH  096%=      5-min Rain = 0.01
KWA1 081217Z 02005KT 02/02 A3043 RMK A01 T00230018  RH  096%=      5-min Rain = 0
KWA1 081218Z 02006KT 02/02 A3043 RMK A01 T00230018  RH  096%=      5-min Rain = 0
KWA1 081219Z 02006KT 02/02 A3043 RMK A01 T00230018  RH  097%=      5-min Rain = 0
KWA1 081220Z 03006KT 02/02 A3043 RMK A01 T00230018  RH  097%=      5-min Rain = 0
KWA1 081221Z 02007KT 02/02 A3043 RMK A01 T00230018  RH  097%=      5-min Rain = 0
KWA1 081222Z 03008KT 02/02 A3043 RMK A01 T00230018  RH  097%=      5-min Rain = 0
KWA1 081223Z 02007KT 02/02 A3043 RMK A01 T00230018  RH  097%=      5-min Rain = 0
KWA1 081224Z 02006KT 02/02 A3043 RMK A01 T00230018  RH  097%=      5-min Rain = 0
KWA1 081225Z 02006KT 02/02 A3044 RMK A01 T00230018  RH  097%=      5-min Rain = 0
KWA1 081226Z 01006KT 02/02 A3044 RMK A01 T00230018  RH  097%=      5-min Rain = 0
KWA1 081227Z 01006KT 02/02 A3044 RMK A01 T00230018  RH  097%=      5-min Rain = 0
KWA1 081228Z 01006KT 02/02 A3044 RMK A01 T00230018  RH  097%=      5-min Rain = 0
KWA1 081229Z 01005KT 02/02 A3044 RMK A01 T00230018  RH  097%=      5-min Rain = 0
KWA1 081230Z 00006KT 02/02 A3044 RMK A01 T00230019  RH  097%=      5-min Rain = 0.01
KWA1 081231Z 00005KT 02/02 A3044 RMK A01 T00230019  RH  097%=      5-min Rain = 0
KWA1 081232Z 36005KT 02/02 A3044 RMK A01 T00230019  RH  097%=      5-min Rain = 0
KWA1 081233Z 35006KT 02/02 A3044 RMK A01 T00240020  RH  097%=      5-min Rain = 0
KWA1 081234Z 36006KT 02/02 A3044 RMK A01 T00240020  RH  097%=      5-min Rain = 0
KWA1 081235Z 35006KT 02/02 A3044 RMK A01 T00240020  RH  097%=      5-min Rain = 0
KWA1 081236Z 35007KT 03/02 A3044 RMK A01 T00250020  RH  097%=      5-min Rain = 0
KWA1 081237Z 35008KT 02/02 A3044 RMK A01 T00240020  RH  097%=      5-min Rain = 0
KWA1 081238Z 35008KT 02/02 A3044 RMK A01 T00240019  RH  097%=      5-min Rain = 0
KWA1 081239Z 35007KT 02/02 A3044 RMK A01 T00230019  RH  097%=      5-min Rain = 0
KWA1 081240Z 35007KT 02/02 A3044 RMK A01 T00230019  RH  097%=      5-min Rain = 0
KWA1 081241Z 01008KT 02/02 A3044 RMK A01 T00240019  RH  097%=      5-min Rain = 0
KWA1 081242Z 01008KT 02/02 A3044 RMK A01 T00240020  RH  097%=      5-min Rain = 0
KWA1 081243Z 00008KT 02/02 A3044 RMK A01 T00230019  RH  097%=      5-min Rain = 0
KWA1 081244Z 00008KT 02/02 A3044 RMK A01 T00240019  RH  097%=      5-min Rain = 0
KWA1 081245Z 00010KT 02/02 A3044 RMK A01 T00230019  RH  097%=      5-min Rain = 0
KWA1 081246Z 00008KT 02/02 A3044 RMK A01 T00230019  RH  097%=      5-min Rain = 0
KWA1 081247Z 35007KT 02/02 A3044 RMK A01 T00230018  RH  097%=      5-min Rain = 0
KWA1 081248Z 00007KT 02/02 A3044 RMK A01 T00230019  RH  097%=      5-min Rain = 0
KWA1 081249Z 36007KT 02/02 A3044 RMK A01 T00230019  RH  097%=      5-min Rain = 0
KWA1 081250Z 00008KT 02/02 A3044 RMK A01 T00230019  RH  097%=      5-min Rain = 0
KWA1 081251Z 00007KT 02/02 A3044 RMK A01 T00230019  RH  097%=      5-min Rain = 0.01
KWA1 081252Z 36007KT 02/02 A3044 RMK A01 T00230019  RH  097%=      5-min Rain = 0
KWA1 081253Z 00007KT 02/02 A3044 RMK A01 T00240019  RH  097%=      5-min Rain = 0
KWA1 081254Z 00008KT 02/02 A3044 RMK A01 T00240020  RH  097%=      5-min Rain = 0
KWA1 081255Z 01007KT 02/02 A3044 RMK A01 T00240020  RH  097%=      5-min Rain = 0
KWA1 081256Z 00007KT 02/02 A3044 RMK A01 T00240020  RH  097%=      5-min Rain = 0
KWA1 081257Z 36008KT 02/02 A3044 RMK A01 T00240019  RH  097%=      5-min Rain = 0
KWA1 081258Z 00008KT 02/02 A3044 RMK A01 T00230019  RH  097%=      5-min Rain = 0
KWA1 081259Z 36009KT 02/02 A3044 RMK A01 T00240019  RH  097%=      5-min Rain = 0
KWA1 081300Z 36009KT 02/02 A3044 RMK A01 T00240019  RH  097%=      5-min Rain = 0
KWA1 081301Z 00009KT 02/02 A3044 RMK A01 T00230019  RH  097%=      5-min Rain = 0
KWA1 081302Z 36008KT 02/02 A3044 RMK A01 T00230019  RH  097%=      5-min Rain = 0
KWA1 081303Z 36008KT 02/02 A3044 RMK A01 T00230019  RH  097%=      5-min Rain = 0
KWA1 081304Z 35006KT 02/02 A3044 RMK A01 T00240019  RH  097%=      5-min Rain = 0
KWA1 081305Z 35007KT 02/02 A3044 RMK A01 T00230019  RH  097%=      5-min Rain = 0
KWA1 081306Z 35007KT 02/02 A3044 RMK A01 T00240019  RH  097%=      5-min Rain = 0
KWA1 081307Z 35007KT 02/02 A3044 RMK A01 T00230019  RH  097%=      5-min Rain = 0.01
KWA1 081308Z 35007KT 02/02 A3044 RMK A01 T00230018  RH  097%=      5-min Rain = 0
KWA1 081309Z 35007KT 02/02 A3044 RMK A01 T00230018  RH  097%=      5-min Rain = 0
KWA1 081310Z 35008KT 02/02 A3044 RMK A01 T00230018  RH  097%=      5-min Rain = 0
KWA1 081311Z 35008KT 02/02 A3044 RMK A01 T00230018  RH  097%=      5-min Rain = 0
KWA1 081312Z 35009KT 02/02 A3044 RMK A01 T00230018  RH  096%=      5-min Rain = 0
KWA1 081313Z 36008KT 02/02 A3044 RMK A01 T00230017  RH  096%=      5-min Rain = 0
KWA1 081314Z 35009KT 02/02 A3044 RMK A01 T00230017  RH  096%=      5-min Rain = 0
KWA1 081315Z 00007KT 02/02 A3044 RMK A01 T00220017  RH  096%=      5-min Rain = 0
KWA1 081316Z 36009KT 02/02 A3044 RMK A01 T00230017  RH  096%=      5-min Rain = 0
KWA1 081317Z 36009KT 02/02 A3044 RMK A01 T00220017  RH  096%=      5-min Rain = 0
KWA1 081318Z 36009KT 02/02 A3045 RMK A01 T00230017  RH  096%=      5-min Rain = 0
KWA1 081319Z 00009KT 02/02 A3045 RMK A01 T00220016  RH  096%=      5-min Rain = 0
KWA1 081320Z 00009KT 02/02 A3045 RMK A01 T00230016  RH  095%=      5-min Rain = 0
KWA1 081321Z 36008KT 02/02 A3045 RMK A01 T00230016  RH  095%=      5-min Rain = 0
KWA1 081322Z 35007KT 02/02 A3045 RMK A01 T00230016  RH  096%=      5-min Rain = 0
KWA1 081323Z 35007KT 02/02 A3045 RMK A01 T00230017  RH  096%=      5-min Rain = 0
KWA1 081324Z 36005KT 02/02 A3044 RMK A01 T00230017  RH  096%=      5-min Rain = 0
KWA1 081325Z 35006KT 02/02 A3045 RMK A01 T00240018  RH  096%=      5-min Rain = 0
KWA1 081326Z 36007KT 02/02 A3045 RMK A01 T00240018  RH  096%=      5-min Rain = 0
KWA1 081327Z 00007KT 02/02 A3045 RMK A01 T00230017  RH  096%=      5-min Rain = 0
KWA1 081328Z 00008KT 02/02 A3045 RMK A01 T00230016  RH  095%=      5-min Rain = 0
KWA1 081329Z 01008KT 02/02 A3045 RMK A01 T00230016  RH  095%=      5-min Rain = 0
KWA1 081330Z 36007KT 02/02 A3045 RMK A01 T00230016  RH  095%=      5-min Rain = 0
KWA1 081331Z 35008KT 02/02 A3045 RMK A01 T00230016  RH  095%=      5-min Rain = 0
KWA1 081332Z 36009KT 02/02 A3045 RMK A01 T00230016  RH  095%=      5-min Rain = 0
KWA1 081333Z 36008KT 02/02 A3045 RMK A01 T00230016  RH  095%=      5-min Rain = 0
KWA1 081334Z 36007KT 02/02 A3045 RMK A01 T00230016  RH  095%=      5-min Rain = 0
KWA1 081335Z 00007KT 02/02 A3044 RMK A01 T00230016  RH  095%=      5-min Rain = 0
KWA1 081336Z 01007KT 02/02 A3044 RMK A01 T00240016  RH  095%=      5-min Rain = 0.01
KWA1 081337Z 00005KT 02/02 A3044 RMK A01 T00230016  RH  095%=      5-min Rain = 0
KWA1 081338Z 00007KT 02/02 A3044 RMK A01 T00240017  RH  096%=      5-min Rain = 0
KWA1 081339Z 00007KT 02/02 A3044 RMK A01 T00240017  RH  095%=      5-min Rain = 0
KWA1 081340Z 00007KT 02/02 A3044 RMK A01 T00240016  RH  095%=      5-min Rain = 0
KWA1 081341Z 36006KT 02/02 A3044 RMK A01 T00230015  RH  095%=      5-min Rain = 0
KWA1 081342Z 36006KT 02/02 A3045 RMK A01 T00230015  RH  095%=      5-min Rain = 0
KWA1 081343Z 00007KT 02/02 A3045 RMK A01 T00240016  RH  095%=      5-min Rain = 0
KWA1 081344Z 36008KT 02/02 A3045 RMK A01 T00240016  RH  095%=      5-min Rain = 0
KWA1 081345Z 00008KT 02/02 A3045 RMK A01 T00230016  RH  095%=      5-min Rain = 0
KWA1 081346Z 36008KT 02/02 A3045 RMK A01 T00240016  RH  095%=      5-min Rain = 0
KWA1 081347Z 00006KT 02/02 A3045 RMK A01 T00240015  RH  094%=      5-min Rain = 0
KWA1 081348Z 36006KT 02/02 A3045 RMK A01 T00240016  RH  095%=      5-min Rain = 0
KWA1 081349Z 35008KT 03/02 A3045 RMK A01 T00250017  RH  095%=      5-min Rain = 0
KWA1 081350Z 35008KT 02/02 A3045 RMK A01 T00240017  RH  095%=      5-min Rain = 0
KWA1 081351Z 35008KT 02/02 A3045 RMK A01 T00240015  RH  094%=      5-min Rain = 0
KWA1 081352Z 35009KT 02/02 A3045 RMK A01 T00230015  RH  094%=      5-min Rain = 0
KWA1 081353Z 35008KT 02/01 A3045 RMK A01 T00230014  RH  094%=      5-min Rain = 0
KWA1 081354Z 35007KT 02/02 A3045 RMK A01 T00240015  RH  094%=      5-min Rain = 0
KWA1 081355Z 35007KT 02/02 A3045 RMK A01 T00240015  RH  094%=      5-min Rain = 0
KWA1 081356Z 35006KT 02/02 A3045 RMK A01 T00240015  RH  094%=      5-min Rain = 0
KWA1 081357Z 36005KT 02/02 A3045 RMK A01 T00240016  RH  094%=      5-min Rain = 0
KWA1 081358Z 35006KT 02/02 A3045 RMK A01 T00240017  RH  095%=      5-min Rain = 0
KWA1 081359Z 35007KT 02/02 A3045 RMK A01 T00240017  RH  095%=      5-min Rain = 0
KWA1 081400Z 35008KT 02/02 A3045 RMK A01 T00240016  RH  094%=      5-min Rain = 0
KWA1 081401Z 35008KT 02/02 A3045 RMK A01 T00240015  RH  094%=      5-min Rain = 0
KWA1 081402Z 35006KT 02/02 A3045 RMK A01 T00240015  RH  094%=      5-min Rain = 0
KWA1 081403Z 36007KT 02/02 A3045 RMK A01 T00240016  RH  094%=      5-min Rain = 0
KWA1 081404Z 36007KT 02/02 A3045 RMK A01 T00240016  RH  094%=      5-min Rain = 0
KWA1 081405Z 00005KT 02/02 A3045 RMK A01 T00240015  RH  094%=      5-min Rain = 0
KWA1 081406Z 00006KT 02/02 A3045 RMK A01 T00240015  RH  094%=      5-min Rain = 0
KWA1 081407Z 36006KT 02/02 A3045 RMK A01 T00240015  RH  094%=      5-min Rain = 0
KWA1 081408Z 35005KT 02/02 A3045 RMK A01 T00240015  RH  094%=      5-min Rain = 0
KWA1 081409Z 36005KT 02/02 A3045 RMK A01 T00240015  RH  094%=      5-min Rain = 0
KWA1 081410Z 35005KT 02/02 A3045 RMK A01 T00240015  RH  094%=      5-min Rain = 0
KWA1 081411Z 35005KT 03/02 A3045 RMK A01 T00250016  RH  094%=      5-min Rain = 0
KWA1 081412Z 36005KT 03/02 A3045 RMK A01 T00250016  RH  094%=      5-min Rain = 0
KWA1 081413Z 35004KT 03/02 A3045 RMK A01 T00250016  RH  094%=      5-min Rain = 0
KWA1 081414Z 34004KT 03/02 A3046 RMK A01 T00250016  RH  094%=      5-min Rain = 0
KWA1 081415Z 34006KT 03/02 A3046 RMK A01 T00250016  RH  094%=      5-min Rain = 0
KWA1 081416Z 35005KT 03/02 A3046 RMK A01 T00250016  RH  093%=      5-min Rain = 0.01
KWA1 081417Z 36006KT 03/02 A3046 RMK A01 T00250016  RH  093%=      5-min Rain = 0
KWA1 081418Z 35006KT 03/02 A3046 RMK A01 T00260015  RH  093%=      5-min Rain = 0
KWA1 081419Z 36006KT 03/01 A3046 RMK A01 T00250014  RH  093%=      5-min Rain = 0
KWA1 081420Z 35006KT 03/02 A3046 RMK A01 T00250015  RH  093%=      5-min Rain = 0
KWA1 081421Z 35005KT 03/02 A3046 RMK A01 T00250015  RH  093%=      5-min Rain = 0
KWA1 081422Z 35005KT 03/02 A3046 RMK A01 T00250016  RH  093%=      5-min Rain = 0
KWA1 081423Z 34007KT 03/02 A3046 RMK A01 T00260017  RH  094%=      5-min Rain = 0
KWA1 081424Z 35006KT 03/02 A3046 RMK A01 T00260016  RH  093%=      5-min Rain = 0
KWA1 081425Z 36006KT 03/02 A3046 RMK A01 T00260015  RH  093%=      5-min Rain = 0
KWA1 081426Z 00006KT 03/02 A3046 RMK A01 T00260015  RH  093%=      5-min Rain = 0
KWA1 081427Z 36005KT 03/02 A3046 RMK A01 T00260016  RH  093%=      5-min Rain = 0
KWA1 081428Z 35006KT 03/02 A3046 RMK A01 T00260016  RH  093%=      5-min Rain = 0
KWA1 081429Z 35006KT 03/02 A3046 RMK A01 T00260016  RH  093%=      5-min Rain = 0
KWA1 081430Z 36006KT 03/02 A3046 RMK A01 T00270017  RH  093%=      5-min Rain = 0
KWA1 081431Z 00006KT 03/02 A3046 RMK A01 T00270016  RH  093%=      5-min Rain = 0
KWA1 081432Z 36005KT 03/02 A3046 RMK A01 T00260015  RH  092%=      5-min Rain = 0
KWA1 081433Z 35006KT 03/02 A3046 RMK A01 T00260015  RH  093%=      5-min Rain = 0
KWA1 081434Z 36005KT 03/02 A3046 RMK A01 T00260016  RH  093%=      5-min Rain = 0
KWA1 081435Z 00005KT 03/02 A3046 RMK A01 T00270017  RH  093%=      5-min Rain = 0
KWA1 081436Z 00006KT 03/02 A3046 RMK A01 T00270017  RH  093%=      5-min Rain = 0
KWA1 081437Z 36006KT 03/02 A3046 RMK A01 T00270016  RH  093%=      5-min Rain = 0
KWA1 081438Z 00005KT 03/02 A3046 RMK A01 T00270015  RH  092%=      5-min Rain = 0
KWA1 081439Z 00005KT 03/02 A3046 RMK A01 T00270015  RH  092%=      5-min Rain = 0
KWA1 081440Z 35006KT 03/02 A3046 RMK A01 T00270016  RH  092%=      5-min Rain = 0
KWA1 081441Z 00005KT 03/02 A3046 RMK A01 T00270015  RH  092%=      5-min Rain = 0
KWA1 081442Z 01004KT 03/02 A3046 RMK A01 T00270015  RH  092%=      5-min Rain = 0
KWA1 081443Z 36005KT 03/02 A3046 RMK A01 T00280016  RH  092%=      5-min Rain = 0
KWA1 081444Z 36006KT 03/02 A3046 RMK A01 T00280016  RH  092%=      5-min Rain = 0
KWA1 081445Z 00005KT 03/02 A3046 RMK A01 T00290015  RH  091%=      5-min Rain = 0
KWA1 081446Z 01005KT 03/02 A3046 RMK A01 T00280015  RH  091%=      5-min Rain = 0
KWA1 081447Z 01004KT 03/02 A3046 RMK A01 T00290016  RH  091%=      5-min Rain = 0
KWA1 081448Z 00006KT 03/02 A3046 RMK A01 T00290016  RH  091%=      5-min Rain = 0
KWA1 081449Z 01006KT 03/02 A3046 RMK A01 T00290015  RH  091%=      5-min Rain = 0
KWA1 081450Z 01007KT 03/02 A3046 RMK A01 T00290015  RH  090%=      5-min Rain = 0
KWA1 081451Z 01006KT 03/01 A3046 RMK A01 T00290013  RH  089%=      5-min Rain = 0
KWA1 081452Z 02005KT 03/01 A3046 RMK A01 T00290013  RH  089%=      5-min Rain = 0
KWA1 081453Z 02005KT 03/01 A3046 RMK A01 T00290013  RH  090%=      5-min Rain = 0
KWA1 081454Z 02005KT 03/01 A3046 RMK A01 T00290013  RH  090%=      5-min Rain = 0
KWA1 081455Z 02005KT 03/01 A3046 RMK A01 T00290014  RH  090%=      5-min Rain = 0
KWA1 081456Z 02005KT 03/01 A3046 RMK A01 T00290013  RH  090%=      5-min Rain = 0
KWA1 081457Z 01004KT 03/01 A3046 RMK A01 T00290013  RH  089%=      5-min Rain = 0
KWA1 081458Z 01005KT 03/01 A3046 RMK A01 T00290014  RH  090%=      5-min Rain = 0
KWA1 081459Z 35003KT 03/02 A3046 RMK A01 T00290015  RH  090%=      5-min Rain = 0
KWA1 081500Z 34003KT 03/02 A3046 RMK A01 T00300017  RH  091%=      5-min Rain = 0
KWA1 081501Z 35003KT 03/02 A3046 RMK A01 T00300017  RH  091%=      5-min Rain = 0
KWA1 081502Z 36004KT 03/02 A3046 RMK A01 T00300016  RH  091%=      5-min Rain = 0
KWA1 081503Z 01005KT 03/02 A3046 RMK A01 T00300015  RH  090%=      5-min Rain = 0
KWA1 081504Z 36005KT 03/02 A3046 RMK A01 T00300015  RH  090%=      5-min Rain = 0
KWA1 081505Z 35004KT 03/02 A3046 RMK A01 T00300015  RH  090%=      5-min Rain = 0
KWA1 081506Z 35003KT 03/02 A3046 RMK A01 T00310016  RH  090%=      5-min Rain = 0
KWA1 081507Z 35003KT 03/02 A3046 RMK A01 T00300016  RH  090%=      5-min Rain = 0
KWA1 081508Z 34004KT 03/02 A3046 RMK A01 T00300015  RH  089%=      5-min Rain = 0
KWA1 081509Z 36004KT 03/02 A3046 RMK A01 T00300015  RH  090%=      5-min Rain = 0
KWA1 081510Z 34003KT 03/02 A3046 RMK A01 T00300015  RH  090%=      5-min Rain = 0
KWA1 081511Z 36002KT 03/02 A3046 RMK A01 T00310017  RH  091%=      5-min Rain = 0
KWA1 081512Z 01001KT 03/01 A3046 RMK A01 T00310014  RH  089%=      5-min Rain = 0
KWA1 081513Z 01000KT 03/01 A3046 RMK A01 T00300014  RH  089%=      5-min Rain = 0
KWA1 081514Z 34002KT 03/01 A3046 RMK A01 T00300014  RH  089%=      5-min Rain = 0
KWA1 081515Z 34003KT 03/01 A3046 RMK A01 T00300013  RH  088%=      5-min Rain = 0
KWA1 081516Z 35004KT 03/01 A3047 RMK A01 T00300013  RH  088%=      5-min Rain = 0
KWA1 081517Z 35004KT 03/01 A3047 RMK A01 T00300014  RH  089%=      5-min Rain = 0
KWA1 081518Z 35004KT 03/02 A3047 RMK A01 T00310015  RH  090%=      5-min Rain = 0
KWA1 081519Z 35003KT 03/02 A3047 RMK A01 T00310015  RH  089%=      5-min Rain = 0
KWA1 081520Z 00003KT 03/02 A3046 RMK A01 T00310015  RH  089%=      5-min Rain = 0
KWA1 081521Z 00004KT 03/02 A3046 RMK A01 T00320016  RH  089%=      5-min Rain = 0
KWA1 081522Z 36004KT 03/02 A3046 RMK A01 T00320016  RH  089%=      5-min Rain = 0
KWA1 081523Z 35004KT 03/01 A3046 RMK A01 T00310014  RH  088%=      5-min Rain = 0
KWA1 081524Z 35004KT 03/01 A3046 RMK A01 T00310012  RH  088%=      5-min Rain = 0
KWA1 081525Z 35005KT 03/01 A3047 RMK A01 T00310014  RH  089%=      5-min Rain = 0
KWA1 081526Z 35004KT 03/02 A3047 RMK A01 T00320017  RH  090%=      5-min Rain = 0
KWA1 081527Z 35004KT 03/02 A3047 RMK A01 T00330018  RH  090%=      5-min Rain = 0
KWA1 081528Z 00003KT 03/02 A3047 RMK A01 T00330017  RH  089%=      5-min Rain = 0
KWA1 081529Z 00003KT 03/02 A3047 RMK A01 T00330017  RH  089%=      5-min Rain = 0
KWA1 081530Z 35005KT 03/02 A3047 RMK A01 T00330017  RH  089%=      5-min Rain = 0
KWA1 081531Z 34006KT 03/02 A3047 RMK A01 T00330016  RH  088%=      5-min Rain = 0
KWA1 081532Z 34005KT 03/01 A3047 RMK A01 T00320014  RH  088%=      5-min Rain = 0
KWA1 081533Z 35007KT 03/01 A3047 RMK A01 T00320014  RH  088%=      5-min Rain = 0
KWA1 081534Z 34006KT 03/01 A3047 RMK A01 T00320014  RH  088%=      5-min Rain = 0
KWA1 081535Z 34007KT 03/01 A3047 RMK A01 T00330014  RH  088%=      5-min Rain = 0
KWA1 081536Z 33007KT 03/01 A3047 RMK A01 T00330013  RH  087%=      5-min Rain = 0
KWA1 081537Z 33007KT 03/01 A3047 RMK A01 T00320012  RH  087%=      5-min Rain = 0
KWA1 081538Z 33006KT 03/01 A3047 RMK A01 T00320013  RH  087%=      5-min Rain = 0
KWA1 081539Z 34006KT 03/01 A3047 RMK A01 T00330014  RH  088%=      5-min Rain = 0
KWA1 081540Z 33006KT 03/02 A3047 RMK A01 T00330015  RH  088%=      5-min Rain = 0
KWA1 081541Z 33006KT 03/02 A3047 RMK A01 T00340017  RH  089%=      5-min Rain = 0
KWA1 081542Z 33006KT 03/02 A3047 RMK A01 T00340016  RH  088%=      5-min Rain = 0
KWA1 081543Z 33005KT 03/02 A3047 RMK A01 T00340016  RH  088%=      5-min Rain = 0
KWA1 081544Z 35006KT 04/02 A3047 RMK A01 T00350016  RH  088%=      5-min Rain = 0
KWA1 081545Z 00007KT 03/02 A3047 RMK A01 T00340015  RH  087%=      5-min Rain = 0
KWA1 081546Z 36007KT 03/02 A3047 RMK A01 T00340015  RH  087%=      5-min Rain = 0
KWA1 081547Z 35006KT 03/01 A3047 RMK A01 T00340014  RH  087%=      5-min Rain = 0
KWA1 081548Z 34006KT 03/02 A3047 RMK A01 T00340016  RH  088%=      5-min Rain = 0
KWA1 081549Z 34006KT 03/02 A3047 RMK A01 T00340015  RH  087%=      5-min Rain = 0
KWA1 081550Z 36007KT 04/02 A3047 RMK A01 T00350015  RH  087%=      5-min Rain = 0
KWA1 081551Z 36007KT 04/02 A3047 RMK A01 T00350015  RH  087%=      5-min Rain = 0
KWA1 081552Z 35005KT 04/02 A3047 RMK A01 T00350015  RH  086%=      5-min Rain = 0
KWA1 081553Z 34005KT 04/02 A3047 RMK A01 T00350015  RH  087%=      5-min Rain = 0
KWA1 081554Z 34006KT 04/02 A3047 RMK A01 T00360017  RH  087%=      5-min Rain = 0
KWA1 081555Z 33006KT 04/02 A3047 RMK A01 T00370019  RH  088%=      5-min Rain = 0
KWA1 081556Z 35005KT 04/02 A3047 RMK A01 T00380019  RH  087%=      5-min Rain = 0
KWA1 081557Z 01005KT 04/02 A3047 RMK A01 T00380020  RH  088%=      5-min Rain = 0
KWA1 081558Z 36006KT 04/02 A3047 RMK A01 T00380019  RH  087%=      5-min Rain = 0
KWA1 081559Z 35006KT 04/02 A3047 RMK A01 T00380016  RH  086%=      5-min Rain = 0
KWA1 081600Z 00006KT 04/02 A3047 RMK A01 T00380019  RH  087%=      5-min Rain = 0
KWA1 081601Z 00005KT 04/02 A3047 RMK A01 T00390018  RH  086%=      5-min Rain = 0
KWA1 081602Z 35005KT 04/02 A3047 RMK A01 T00380016  RH  086%=      5-min Rain = 0
KWA1 081603Z 33005KT 04/02 A3047 RMK A01 T00380016  RH  086%=      5-min Rain = 0
KWA1 081604Z 33005KT 04/02 A3047 RMK A01 T00380017  RH  086%=      5-min Rain = 0
KWA1 081605Z 33005KT 04/02 A3047 RMK A01 T00380018  RH  087%=      5-min Rain = 0
KWA1 081606Z 33005KT 04/02 A3047 RMK A01 T00380015  RH  085%=      5-min Rain = 0
KWA1 081607Z 34007KT 04/02 A3047 RMK A01 T00370017  RH  086%=      5-min Rain = 0
KWA1 081608Z 34006KT 04/02 A3047 RMK A01 T00380017  RH  086%=      5-min Rain = 0
KWA1 081609Z 35006KT 04/02 A3047 RMK A01 T00380017  RH  086%=      5-min Rain = 0
KWA1 081610Z 36006KT 04/02 A3047 RMK A01 T00380017  RH  086%=      5-min Rain = 0
KWA1 081611Z 34005KT 04/02 A3047 RMK A01 T00390018  RH  087%=      5-min Rain = 0
KWA1 081612Z 34006KT 04/02 A3047 RMK A01 T00400020  RH  087%=      5-min Rain = 0
KWA1 081613Z 35006KT 04/02 A3047 RMK A01 T00400019  RH  086%=      5-min Rain = 0
KWA1 081614Z 34005KT 04/02 A3047 RMK A01 T00390017  RH  085%=      5-min Rain = 0
KWA1 081615Z 32004KT 04/02 A3046 RMK A01 T00390017  RH  086%=      5-min Rain = 0
KWA1 081616Z 31003KT 04/01 A3046 RMK A01 T00380014  RH  084%=      5-min Rain = 0
KWA1 081617Z 32005KT 04/02 A3046 RMK A01 T00380016  RH  086%=      5-min Rain = 0
KWA1 081618Z 33005KT 04/02 A3046 RMK A01 T00390019  RH  087%=      5-min Rain = 0
KWA1 081619Z 33004KT 04/02 A3046 RMK A01 T00390016  RH  085%=      5-min Rain = 0
KWA1 081620Z 32005KT 04/02 A3046 RMK A01 T00390015  RH  085%=      5-min Rain = 0
KWA1 081621Z 32006KT 04/02 A3046 RMK A01 T00390016  RH  085%=      5-min Rain = 0
KWA1 081622Z 33005KT 04/02 A3046 RMK A01 T00400017  RH  085%=      5-min Rain = 0
KWA1 081623Z 32005KT 04/02 A3046 RMK A01 T00400017  RH  085%=      5-min Rain = 0
KWA1 081624Z 33005KT 04/02 A3046 RMK A01 T00390016  RH  084%=      5-min Rain = 0
KWA1 081625Z 33004KT 04/02 A3046 RMK A01 T00390015  RH  084%=      5-min Rain = 0
KWA1 081626Z 33004KT 04/02 A3046 RMK A01 T00390015  RH  084%=      5-min Rain = 0
KWA1 081627Z 34003KT 04/02 A3046 RMK A01 T00390015  RH  085%=      5-min Rain = 0
KWA1 081628Z 34001KT 04/01 A3046 RMK A01 T00390014  RH  084%=      5-min Rain = 0
KWA1 081629Z 36002KT 04/02 A3046 RMK A01 T00390016  RH  085%=      5-min Rain = 0
KWA1 081630Z 34004KT 04/02 A3046 RMK A01 T00400018  RH  085%=      5-min Rain = 0
KWA1 081631Z 34006KT 04/02 A3046 RMK A01 T00410018  RH  085%=      5-min Rain = 0
KWA1 081632Z 34005KT 04/02 A3046 RMK A01 T00410018  RH  085%=      5-min Rain = 0
KWA1 081633Z 33005KT 04/02 A3046 RMK A01 T00410015  RH  083%=      5-min Rain = 0
KWA1 081634Z 33005KT 04/02 A3046 RMK A01 T00410017  RH  085%=      5-min Rain = 0
KWA1 081635Z 32006KT 04/02 A3046 RMK A01 T00410018  RH  085%=      5-min Rain = 0
KWA1 081636Z 32006KT 04/02 A3046 RMK A01 T00410017  RH  084%=      5-min Rain = 0
KWA1 081637Z 33004KT 04/02 A3046 RMK A01 T00410016  RH  083%=      5-min Rain = 0
KWA1 081638Z 32005KT 04/02 A3046 RMK A01 T00410018  RH  085%=      5-min Rain = 0
KWA1 081639Z 31003KT 04/02 A3046 RMK A01 T00420019  RH  085%=      5-min Rain = 0
KWA1 081640Z 31005KT 04/02 A3046 RMK A01 T00410017  RH  084%=      5-min Rain = 0
KWA1 081641Z 33004KT 04/02 A3046 RMK A01 T00420019  RH  085%=      5-min Rain = 0
KWA1 081642Z 32004KT 04/02 A3046 RMK A01 T00420020  RH  086%=      5-min Rain = 0
KWA1 081643Z 31005KT 04/02 A3046 RMK A01 T00420020  RH  085%=      5-min Rain = 0
KWA1 081644Z 31005KT 04/02 A3046 RMK A01 T00420020  RH  086%=      5-min Rain = 0
KWA1 081645Z 32004KT 04/02 A3046 RMK A01 T00420019  RH  085%=      5-min Rain = 0
KWA1 081646Z 31004KT 04/02 A3046 RMK A01 T00410017  RH  084%=      5-min Rain = 0
KWA1 081647Z 31003KT 04/02 A3046 RMK A01 T00410017  RH  085%=      5-min Rain = 0
KWA1 081648Z 30004KT 04/02 A3046 RMK A01 T00410016  RH  084%=      5-min Rain = 0
KWA1 081649Z 31004KT 04/02 A3046 RMK A01 T00400016  RH  084%=      5-min Rain = 0
KWA1 081650Z 33004KT 04/02 A3046 RMK A01 T00410018  RH  085%=      5-min Rain = 0
KWA1 081651Z 34004KT 04/02 A3046 RMK A01 T00430023  RH  087%=      5-min Rain = 0
KWA1 081652Z 34005KT 04/02 A3045 RMK A01 T00430022  RH  086%=      5-min Rain = 0
KWA1 081653Z 33004KT 04/02 A3045 RMK A01 T00440022  RH  086%=      5-min Rain = 0
KWA1 081654Z 34003KT 04/02 A3045 RMK A01 T00440022  RH  085%=      5-min Rain = 0
KWA1 081655Z 35004KT 04/02 A3045 RMK A01 T00440021  RH  085%=      5-min Rain = 0
KWA1 081656Z 34004KT 04/02 A3045 RMK A01 T00440020  RH  084%=      5-min Rain = 0
KWA1 081657Z 34005KT 04/02 A3045 RMK A01 T00440023  RH  086%=      5-min Rain = 0
KWA1 081658Z 33004KT 05/02 A3045 RMK A01 T00450023  RH  085%=      5-min Rain = 0
KWA1 081659Z 32004KT 04/02 A3045 RMK A01 T00440018  RH  083%=      5-min Rain = 0
KWA1 081700Z 32003KT 04/02 A3045 RMK A01 T00440019  RH  084%=      5-min Rain = 0
KWA1 081701Z 32004KT 04/02 A3045 RMK A01 T00440020  RH  085%=      5-min Rain = 0
KWA1 081702Z 32004KT 04/02 A3045 RMK A01 T00440020  RH  084%=      5-min Rain = 0
KWA1 081703Z 32003KT 04/02 A3045 RMK A01 T00440021  RH  085%=      5-min Rain = 0
KWA1 081704Z 34003KT 05/02 A3045 RMK A01 T00450021  RH  085%=      5-min Rain = 0
KWA1 081705Z 33002KT 05/02 A3045 RMK A01 T00450019  RH  084%=      5-min Rain = 0
KWA1 081706Z 32005KT 05/02 A3045 RMK A01 T00450021  RH  085%=      5-min Rain = 0
KWA1 081707Z 32004KT 05/02 A3045 RMK A01 T00450020  RH  084%=      5-min Rain = 0
KWA1 081708Z 33005KT 05/02 A3045 RMK A01 T00450021  RH  084%=      5-min Rain = 0
KWA1 081709Z 32004KT 05/02 A3044 RMK A01 T00450022  RH  085%=      5-min Rain = 0
KWA1 081710Z 31004KT 05/02 A3044 RMK A01 T00460024  RH  086%=      5-min Rain = 0
KWA1 081711Z 35004KT 05/03 A3044 RMK A01 T00470025  RH  086%=      5-min Rain = 0
KWA1 081712Z 36003KT 05/02 A3044 RMK A01 T00470022  RH  084%=      5-min Rain = 0
KWA1 081713Z 35004KT 05/02 A3044 RMK A01 T00470024  RH  085%=      5-min Rain = 0
KWA1 081714Z 34004KT 05/03 A3044 RMK A01 T00490026  RH  086%=      5-min Rain = 0
KWA1 081715Z 33003KT 05/03 A3044 RMK A01 T00490026  RH  085%=      5-min Rain = 0
KWA1 081716Z 34004KT 05/03 A3044 RMK A01 T00490027  RH  086%=      5-min Rain = 0
KWA1 081717Z 34003KT 05/03 A3044 RMK A01 T00490026  RH  085%=      5-min Rain = 0
KWA1 081718Z 34003KT 05/02 A3044 RMK A01 T00490024  RH  084%=      5-min Rain = 0
KWA1 081719Z 35002KT 05/03 A3044 RMK A01 T00490025  RH  084%=      5-min Rain = 0
KWA1 081720Z 34002KT 05/03 A3044 RMK A01 T00500026  RH  085%=      5-min Rain = 0
KWA1 081721Z 34003KT 05/03 A3043 RMK A01 T00500025  RH  084%=      5-min Rain = 0
KWA1 081722Z 34003KT 05/02 A3043 RMK A01 T00510022  RH  082%=      5-min Rain = 0
KWA1 081723Z 33002KT 05/02 A3043 RMK A01 T00500023  RH  082%=      5-min Rain = 0
KWA1 081724Z 36004KT 05/03 A3043 RMK A01 T00520029  RH  085%=      5-min Rain = 0
KWA1 081725Z 00005KT 05/03 A3043 RMK A01 T00540033  RH  086%=      5-min Rain = 0
KWA1 081726Z 36004KT 06/03 A3043 RMK A01 T00550031  RH  085%=      5-min Rain = 0
KWA1 081727Z 35005KT 06/03 A3043 RMK A01 T00550031  RH  085%=      5-min Rain = 0
KWA1 081728Z 36004KT 05/03 A3044 RMK A01 T00540029  RH  084%=      5-min Rain = 0
KWA1 081729Z 36003KT 05/03 A3043 RMK A01 T00540031  RH  085%=      5-min Rain = 0
KWA1 081730Z 34004KT 06/03 A3043 RMK A01 T00550034  RH  086%=      5-min Rain = 0
KWA1 081731Z 33006KT 06/03 A3043 RMK A01 T00550029  RH  084%=      5-min Rain = 0
KWA1 081732Z 33004KT 05/03 A3043 RMK A01 T00540030  RH  085%=      5-min Rain = 0
KWA1 081733Z 32005KT 05/03 A3043 RMK A01 T00530030  RH  085%=      5-min Rain = 0
KWA1 081734Z 32004KT 05/03 A3043 RMK A01 T00520025  RH  083%=      5-min Rain = 0
KWA1 081735Z 33004KT 05/03 A3043 RMK A01 T00510026  RH  084%=      5-min Rain = 0
KWA1 081736Z 33003KT 05/03 A3043 RMK A01 T00510027  RH  084%=      5-min Rain = 0
KWA1 081737Z 35002KT 05/03 A3043 RMK A01 T00530031  RH  085%=      5-min Rain = 0
KWA1 081738Z 01002KT 05/03 A3043 RMK A01 T00540029  RH  084%=      5-min Rain = 0
KWA1 081739Z 05001KT 06/03 A3043 RMK A01 T00550029  RH  083%=      5-min Rain = 0
KWA1 081740Z 08000KT 06/03 A3043 RMK A01 T00560028  RH  083%=      5-min Rain = 0
KWA1 081741Z 00004KT 06/03 A3043 RMK A01 T00570033  RH  085%=      5-min Rain = 0
KWA1 081742Z 32004KT 06/04 A3043 RMK A01 T00590037  RH  086%=      5-min Rain = 0
KWA1 081743Z 31005KT 06/04 A3043 RMK A01 T00590035  RH  084%=      5-min Rain = 0
KWA1 081744Z 29004KT 06/03 A3043 RMK A01 T00570029  RH  082%=      5-min Rain = 0
KWA1 081745Z 31005KT 06/03 A3043 RMK A01 T00560030  RH  083%=      5-min Rain = 0
KWA1 081746Z 32005KT 06/03 A3043 RMK A01 T00560032  RH  084%=      5-min Rain = 0
KWA1 081747Z 33005KT 06/03 A3043 RMK A01 T00570034  RH  085%=      5-min Rain = 0
KWA1 081748Z 31005KT 06/03 A3043 RMK A01 T00570034  RH  085%=      5-min Rain = 0
KWA1 081749Z 30005KT 06/03 A3043 RMK A01 T00560029  RH  083%=      5-min Rain = 0
KWA1 081750Z 31004KT 06/03 A3043 RMK A01 T00560031  RH  084%=      5-min Rain = 0
KWA1 081751Z 34003KT 06/03 A3043 RMK A01 T00570032  RH  084%=      5-min Rain = 0
KWA1 081752Z 00003KT 06/03 A3042 RMK A01 T00570031  RH  084%=      5-min Rain = 0
KWA1 081753Z 33002KT 06/04 A3042 RMK A01 T00580035  RH  085%=      5-min Rain = 0
KWA1 081754Z 34005KT 06/04 A3042 RMK A01 T00590035  RH  085%=      5-min Rain = 0
KWA1 081755Z 34006KT 06/04 A3042 RMK A01 T00600039  RH  086%=      5-min Rain = 0
KWA1 081756Z 34004KT 06/03 A3042 RMK A01 T00590033  RH  083%=      5-min Rain = 0
KWA1 081757Z 35003KT 06/03 A3042 RMK A01 T00580032  RH  083%=      5-min Rain = 0
KWA1 081758Z 35002KT 06/03 A3042 RMK A01 T00580030  RH  082%=      5-min Rain = 0
KWA1 081759Z 00001KT 06/03 A3042 RMK A01 T00570028  RH  081%=      5-min Rain = 0
KWA1 081800Z 33003KT 06/03 A3042 RMK A01 T00590030  RH  082%=      5-min Rain = 0
KWA1 081801Z 31005KT 06/04 A3042 RMK A01 T00600036  RH  084%=      5-min Rain = 0
KWA1 081802Z 30004KT 06/03 A3042 RMK A01 T00590031  RH  082%=      5-min Rain = 0
KWA1 081803Z 31005KT 06/03 A3042 RMK A01 T00590032  RH  083%=      5-min Rain = 0
KWA1 081804Z 31003KT 06/03 A3042 RMK A01 T00580032  RH  083%=      5-min Rain = 0
KWA1 081805Z 32002KT 06/03 A3042 RMK A01 T00590034  RH  084%=      5-min Rain = 0
KWA1 081806Z 31004KT 06/04 A3042 RMK A01 T00610037  RH  085%=      5-min Rain = 0
KWA1 081807Z 33003KT 06/04 A3042 RMK A01 T00610036  RH  084%=      5-min Rain = 0
KWA1 081808Z 00005KT 06/04 A3042 RMK A01 T00630042  RH  086%=      5-min Rain = 0
KWA1 081809Z 00006KT 06/04 A3042 RMK A01 T00630039  RH  084%=      5-min Rain = 0
KWA1 081810Z 35004KT 06/04 A3042 RMK A01 T00620037  RH  083%=      5-min Rain = 0
KWA1 081816Z 34005KT 06/04 A3041 RMK A01 T00640038  RH  084%=      5-min Rain = 0
KWA1 081817Z 33005KT 07/04 A3041 RMK A01 T00650042  RH  085%=      5-min Rain = 0
KWA1 081818Z 34006KT 07/05 A3041 RMK A01 T00680047  RH  087%=      5-min Rain = 0
KWA1 081819Z 33006KT 07/04 A3041 RMK A01 T00670042  RH  084%=      5-min Rain = 0
KWA1 081820Z 32004KT 07/04 A3041 RMK A01 T00650039  RH  084%=      5-min Rain = 0
KWA1 081821Z 32004KT 07/04 A3041 RMK A01 T00650042  RH  085%=      5-min Rain = 0
KWA1 081822Z 32004KT 07/04 A3041 RMK A01 T00660040  RH  083%=      5-min Rain = 0
KWA1 081823Z 33003KT 07/04 A3041 RMK A01 T00660038  RH  083%=      5-min Rain = 0
KWA1 081824Z 35004KT 07/04 A3041 RMK A01 T00660040  RH  083%=      5-min Rain = 0
KWA1 081825Z 32006KT 07/04 A3041 RMK A01 T00660042  RH  084%=      5-min Rain = 0
KWA1 081826Z 34008KT 07/05 A3041 RMK A01 T00670046  RH  086%=      5-min Rain = 0
KWA1 081827Z 34007KT 07/05 A3041 RMK A01 T00680045  RH  085%=      5-min Rain = 0
KWA1 081828Z 34005KT 07/04 A3041 RMK A01 T00650038  RH  083%=      5-min Rain = 0
KWA1 081829Z 35005KT 07/04 A3041 RMK A01 T00650038  RH  083%=      5-min Rain = 0
KWA1 081830Z 36005KT 07/04 A3041 RMK A01 T00650043  RH  086%=      5-min Rain = 0
KWA1 081831Z 01006KT 07/05 A3041 RMK A01 T00680049  RH  088%=      5-min Rain = 0
KWA1 081832Z 00007KT 07/05 A3041 RMK A01 T00700049  RH  087%=      5-min Rain = 0
KWA1 081833Z 34007KT 07/04 A304 RMK A01 T00690044  RH  084%=      5-min Rain = 0
KWA1 081834Z 34007KT 07/04 A304 RMK A01 T00680044  RH  085%=      5-min Rain = 0
KWA1 081835Z 34005KT 07/04 A304 RMK A01 T00680042  RH  083%=      5-min Rain = 0
KWA1 081836Z 34006KT 07/04 A304 RMK A01 T00670041  RH  084%=      5-min Rain = 0
KWA1 081837Z 36006KT 07/04 A304 RMK A01 T00670041  RH  084%=      5-min Rain = 0
KWA1 081838Z 01004KT 07/04 A304 RMK A01 T00670043  RH  084%=      5-min Rain = 0
KWA1 081839Z 01004KT 07/04 A304 RMK A01 T00680041  RH  083%=      5-min Rain = 0
KWA1 081840Z 02004KT 07/04 A304 RMK A01 T00680043  RH  084%=      5-min Rain = 0
KWA1 081841Z 34006KT 07/04 A304 RMK A01 T00690041  RH  082%=      5-min Rain = 0
KWA1 081842Z 33006KT 07/05 A3039 RMK A01 T00690045  RH  085%=      5-min Rain = 0
KWA1 081843Z 34004KT 07/04 A3039 RMK A01 T00690044  RH  084%=      5-min Rain = 0
KWA1 081844Z 36003KT 07/05 A3039 RMK A01 T00700047  RH  085%=      5-min Rain = 0
KWA1 081845Z 35004KT 07/04 A3039 RMK A01 T00690041  RH  082%=      5-min Rain = 0
KWA1 081846Z 00005KT 07/04 A3039 RMK A01 T00680039  RH  082%=      5-min Rain = 0
KWA1 081847Z 36005KT 07/04 A3039 RMK A01 T00680039  RH  082%=      5-min Rain = 0
KWA1 081848Z 35005KT 07/04 A3039 RMK A01 T00670039  RH  082%=      5-min Rain = 0
KWA1 081849Z 32007KT 07/05 A3039 RMK A01 T00690045  RH  085%=      5-min Rain = 0
KWA1 081850Z 32005KT 07/04 A3039 RMK A01 T00700043  RH  083%=      5-min Rain = 0
KWA1 081851Z 32005KT 07/04 A3039 RMK A01 T00690041  RH  082%=      5-min Rain = 0
KWA1 081852Z 36005KT 07/04 A3039 RMK A01 T00690041  RH  083%=      5-min Rain = 0
KWA1 081853Z 36004KT 07/05 A3039 RMK A01 T00700045  RH  084%=      5-min Rain = 0
KWA1 081854Z 01003KT 07/04 A3039 RMK A01 T00700040  RH  081%=      5-min Rain = 0
KWA1 081855Z 36004KT 07/05 A3039 RMK A01 T00700047  RH  085%=      5-min Rain = 0
KWA1 081856Z 36004KT 07/05 A3039 RMK A01 T00730049  RH  085%=      5-min Rain = 0
KWA1 081857Z 35005KT 07/05 A3039 RMK A01 T00730045  RH  082%=      5-min Rain = 0
KWA1 081858Z 00005KT 07/04 A3039 RMK A01 T00720043  RH  082%=      5-min Rain = 0
KWA1 081859Z 34005KT 07/04 A3039 RMK A01 T00710042  RH  082%=      5-min Rain = 0
KWA1 081900Z 35005KT 07/04 A3039 RMK A01 T00720044  RH  082%=      5-min Rain = 0
KWA1 081901Z 36006KT 07/05 A3039 RMK A01 T00720045  RH  083%=      5-min Rain = 0
KWA1 081902Z 36005KT 07/04 A3039 RMK A01 T00720043  RH  081%=      5-min Rain = 0
KWA1 081903Z 35005KT 07/04 A3038 RMK A01 T00720043  RH  081%=      5-min Rain = 0
KWA1 081904Z 35004KT 07/05 A3038 RMK A01 T00730045  RH  082%=      5-min Rain = 0
KWA1 081905Z 33005KT 07/05 A3038 RMK A01 T00730046  RH  083%=      5-min Rain = 0
KWA1 081906Z 34004KT 07/05 A3038 RMK A01 T00740046  RH  082%=      5-min Rain = 0
KWA1 081907Z 01004KT 07/05 A3038 RMK A01 T00740046  RH  083%=      5-min Rain = 0
KWA1 081908Z 02005KT 08/05 A3038 RMK A01 T00750047  RH  083%=      5-min Rain = 0
KWA1 081909Z 02003KT 08/05 A3038 RMK A01 T00760046  RH  082%=      5-min Rain = 0
KWA1 081910Z 01002KT 08/04 A3038 RMK A01 T00750042  RH  080%=      5-min Rain = 0
KWA1 081911Z 36002KT 08/04 A3037 RMK A01 T00750043  RH  080%=      5-min Rain = 0
KWA1 081912Z 01005KT 08/05 A3037 RMK A01 T00750046  RH  082%=      5-min Rain = 0
KWA1 081913Z 02005KT 08/05 A3037 RMK A01 T00760046  RH  082%=      5-min Rain = 0
KWA1 081914Z 03005KT 08/05 A3037 RMK A01 T00760046  RH  081%=      5-min Rain = 0
KWA1 081915Z 03006KT 08/04 A3037 RMK A01 T00750044  RH  080%=      5-min Rain = 0
KWA1 081916Z 04005KT 08/05 A3037 RMK A01 T00760047  RH  082%=      5-min Rain = 0
KWA1 081917Z 03004KT 08/05 A3037 RMK A01 T00760045  RH  081%=      5-min Rain = 0
KWA1 081918Z 01003KT 08/05 A3037 RMK A01 T00760045  RH  081%=      5-min Rain = 0
KWA1 081919Z 01001KT 08/04 A3037 RMK A01 T00760042  RH  079%=      5-min Rain = 0
KWA1 081920Z 35001KT 08/04 A3037 RMK A01 T00770042  RH  079%=      5-min Rain = 0
KWA1 081921Z 32003KT 08/05 A3037 RMK A01 T00790046  RH  079%=      5-min Rain = 0
KWA1 081922Z 34003KT 08/05 A3037 RMK A01 T00800047  RH  079%=      5-min Rain = 0
KWA1 081923Z 36003KT 08/05 A3037 RMK A01 T00810047  RH  079%=      5-min Rain = 0
KWA1 081924Z 35003KT 08/05 A3037 RMK A01 T00820054  RH  083%=      5-min Rain = 0
KWA1 081925Z 00003KT 08/05 A3037 RMK A01 T00820049  RH  079%=      5-min Rain = 0
KWA1 081926Z 01004KT 08/05 A3037 RMK A01 T00830052  RH  081%=      5-min Rain = 0
KWA1 081927Z 01004KT 08/05 A3037 RMK A01 T00830050  RH  080%=      5-min Rain = 0
KWA1 081928Z 01003KT 08/05 A3037 RMK A01 T00830051  RH  080%=      5-min Rain = 0
KWA1 081929Z 00003KT 08/05 A3037 RMK A01 T00830046  RH  078%=      5-min Rain = 0
KWA1 081930Z 34003KT 08/05 A3037 RMK A01 T00820045  RH  077%=      5-min Rain = 0
KWA1 081931Z 30002KT 08/05 A3037 RMK A01 T00820050  RH  080%=      5-min Rain = 0
KWA1 081932Z 26002KT 08/05 A3036 RMK A01 T00820045  RH  077%=      5-min Rain = 0
KWA1 081933Z 25001KT 08/05 A3036 RMK A01 T00810045  RH  078%=      5-min Rain = 0
KWA1 081934Z 21001KT 08/04 A3036 RMK A01 T00810044  RH  078%=      5-min Rain = 0
KWA1 081935Z 18000KT 08/05 A3036 RMK A01 T00830049  RH  079%=      5-min Rain = 0
KWA1 081936Z 04000KT 09/05 A3036 RMK A01 T00850047  RH  077%=      5-min Rain = 0
KWA1 081937Z 06002KT 09/05 A3036 RMK A01 T00870049  RH  077%=      5-min Rain = 0
KWA1 081938Z 08003KT 09/05 A3036 RMK A01 T00880049  RH  076%=      5-min Rain = 0
KWA1 081939Z 04003KT 09/05 A3036 RMK A01 T00880051  RH  078%=      5-min Rain = 0
KWA1 081940Z 06003KT 09/06 A3036 RMK A01 T00900057  RH  080%=      5-min Rain = 0
KWA1 081941Z 06002KT 09/05 A3036 RMK A01 T00890054  RH  078%=      5-min Rain = 0
KWA1 081942Z 02001KT 09/05 A3036 RMK A01 T00890049  RH  076%=      5-min Rain = 0
KWA1 081943Z 00002KT 09/05 A3036 RMK A01 T00890052  RH  077%=      5-min Rain = 0
KWA1 081944Z 33003KT 09/05 A3036 RMK A01 T00890052  RH  078%=      5-min Rain = 0
KWA1 081945Z 35003KT 09/05 A3036 RMK A01 T00890051  RH  077%=      5-min Rain = 0
KWA1 081946Z 34002KT 09/05 A3036 RMK A01 T00880048  RH  076%=      5-min Rain = 0
KWA1 081947Z 35003KT 09/05 A3036 RMK A01 T00880053  RH  079%=      5-min Rain = 0
KWA1 081948Z 01004KT 09/06 A3036 RMK A01 T00890058  RH  081%=      5-min Rain = 0
KWA1 081949Z 01005KT 09/06 A3036 RMK A01 T00900058  RH  080%=      5-min Rain = 0
KWA1 081950Z 01003KT 09/05 A3036 RMK A01 T00900052  RH  077%=      5-min Rain = 0
KWA1 081951Z 04002KT 09/05 A3036 RMK A01 T00880050  RH  077%=      5-min Rain = 0
KWA1 081952Z 04001KT 09/05 A3036 RMK A01 T00880048  RH  076%=      5-min Rain = 0
KWA1 081953Z 03004KT 09/05 A3036 RMK A01 T00880050  RH  077%=      5-min Rain = 0
KWA1 081954Z 05003KT 09/05 A3036 RMK A01 T00890052  RH  078%=      5-min Rain = 0
KWA1 081955Z 04002KT 09/05 A3036 RMK A01 T00900054  RH  078%=      5-min Rain = 0
KWA1 081956Z 01003KT 09/05 A3036 RMK A01 T00910053  RH  077%=      5-min Rain = 0
KWA1 081957Z 00005KT 09/06 A3036 RMK A01 T00910055  RH  078%=      5-min Rain = 0
KWA1 081958Z 36004KT 09/06 A3036 RMK A01 T00920057  RH  079%=      5-min Rain = 0
KWA1 081959Z 00004KT 09/05 A3036 RMK A01 T00910051  RH  076%=      5-min Rain = 0
KWA1 082000Z 00003KT 09/05 A3036 RMK A01 T00890049  RH  076%=      5-min Rain = 0
KWA1 082001Z 01003KT 09/05 A3036 RMK A01 T00890053  RH  078%=      5-min Rain = 0
KWA1 082002Z 00004KT 09/05 A3036 RMK A01 T00890052  RH  077%=      5-min Rain = 0
KWA1 082003Z 35005KT 09/05 A3036 RMK A01 T00890053  RH  078%=      5-min Rain = 0
KWA1 082004Z 34003KT 09/05 A3036 RMK A01 T00910054  RH  078%=      5-min Rain = 0
KWA1 082005Z 32003KT 09/05 A3036 RMK A01 T00900051  RH  077%=      5-min Rain = 0
KWA1 082006Z 34002KT 09/05 A3036 RMK A01 T00900050  RH  076%=      5-min Rain = 0
KWA1 082007Z 30002KT 09/05 A3036 RMK A01 T00900050  RH  076%=      5-min Rain = 0
KWA1 082008Z 32001KT 09/05 A3036 RMK A01 T00910052  RH  077%=      5-min Rain = 0
KWA1 082009Z 33002KT 09/05 A3036 RMK A01 T00910052  RH  077%=      5-min Rain = 0
KWA1 082010Z 31002KT 09/06 A3036 RMK A01 T00920057  RH  079%=      5-min Rain = 0
KWA1 082011Z 28002KT 09/06 A3036 RMK A01 T00940058  RH  078%=      5-min Rain = 0
KWA1 082012Z 27002KT 09/05 A3036 RMK A01 T00940053  RH  076%=      5-min Rain = 0
KWA1 082013Z 30002KT 09/06 A3035 RMK A01 T00940056  RH  077%=      5-min Rain = 0
KWA1 082014Z 34004KT 10/06 A3035 RMK A01 T00950059  RH  078%=      5-min Rain = 0
KWA1 082015Z 33004KT 10/06 A3035 RMK A01 T00960058  RH  077%=      5-min Rain = 0
KWA1 082016Z 32004KT 10/06 A3035 RMK A01 T00950058  RH  077%=      5-min Rain = 0
KWA1 082017Z 33004KT 09/05 A3035 RMK A01 T00940053  RH  075%=      5-min Rain = 0
KWA1 082018Z 31003KT 09/06 A3035 RMK A01 T00940056  RH  077%=      5-min Rain = 0
KWA1 082019Z 01004KT 09/06 A3035 RMK A01 T00940055  RH  077%=      5-min Rain = 0
KWA1 082020Z 04004KT 09/06 A3035 RMK A01 T00940056  RH  077%=      5-min Rain = 0
KWA1 082021Z 03004KT 10/06 A3035 RMK A01 T00950058  RH  077%=      5-min Rain = 0
KWA1 082022Z 04003KT 10/05 A3035 RMK A01 T00950054  RH  075%=      5-min Rain = 0
KWA1 082023Z 02003KT 10/06 A3035 RMK A01 T00950056  RH  077%=      5-min Rain = 0
KWA1 082024Z 00003KT 10/06 A3035 RMK A01 T00960056  RH  076%=      5-min Rain = 0
KWA1 082025Z 35002KT 10/05 A3035 RMK A01 T00960054  RH  075%=      5-min Rain = 0
KWA1 082026Z 05002KT 10/06 A3035 RMK A01 T00960056  RH  076%=      5-min Rain = 0
KWA1 082027Z 14001KT 10/05 A3035 RMK A01 T00960052  RH  074%=      5-min Rain = 0
KWA1 082028Z 24002KT 10/06 A3035 RMK A01 T00970055  RH  075%=      5-min Rain = 0
KWA1 082029Z 30003KT 10/06 A3035 RMK A01 T00980057  RH  076%=      5-min Rain = 0
KWA1 082030Z 30003KT 10/06 A3035 RMK A01 T00990060  RH  077%=      5-min Rain = 0
KWA1 082031Z 31004KT 10/06 A3035 RMK A01 T00990057  RH  075%=      5-min Rain = 0
KWA1 082032Z 29002KT 10/06 A3035 RMK A01 T00980056  RH  075%=      5-min Rain = 0
KWA1 082033Z 29003KT 10/06 A3034 RMK A01 T00980061  RH  078%=      5-min Rain = 0
KWA1 082034Z 28003KT 10/06 A3034 RMK A01 T00990055  RH  074%=      5-min Rain = 0
KWA1 082035Z 29003KT 10/06 A3034 RMK A01 T00980060  RH  077%=      5-min Rain = 0
KWA1 082036Z 31004KT 10/06 A3034 RMK A01 T01000059  RH  076%=      5-min Rain = 0
KWA1 082037Z 33004KT 10/06 A3034 RMK A01 T01000056  RH  074%=      5-min Rain = 0
KWA1 082038Z 33003KT 10/06 A3034 RMK A01 T00990055  RH  074%=      5-min Rain = 0
KWA1 082039Z 32003KT 10/06 A3034 RMK A01 T00990058  RH  075%=      5-min Rain = 0
KWA1 082040Z 33001KT 10/05 A3034 RMK A01 T00990054  RH  074%=      5-min Rain = 0
KWA1 082041Z 32001KT 10/05 A3034 RMK A01 T00990053  RH  073%=      5-min Rain = 0
KWA1 082042Z 06002KT 10/05 A3034 RMK A01 T00990051  RH  072%=      5-min Rain = 0
KWA1 082043Z 07002KT 10/06 A3034 RMK A01 T01000057  RH  075%=      5-min Rain = 0
KWA1 082044Z 07003KT 10/06 A3034 RMK A01 T01000057  RH  075%=      5-min Rain = 0
KWA1 082045Z 04003KT 10/06 A3034 RMK A01 T01010058  RH  075%=      5-min Rain = 0
KWA1 082046Z 04002KT 10/05 A3034 RMK A01 T01000053  RH  072%=      5-min Rain = 0
KWA1 082047Z 04001KT 10/05 A3034 RMK A01 T00990051  RH  072%=      5-min Rain = 0
KWA1 082048Z 07000KT 10/06 A3034 RMK A01 T01010057  RH  074%=      5-min Rain = 0
KWA1 082049Z 05002KT 10/06 A3034 RMK A01 T01030060  RH  075%=      5-min Rain = 0
KWA1 082050Z 05003KT 10/06 A3034 RMK A01 T01040061  RH  075%=      5-min Rain = 0
KWA1 082051Z 06002KT 10/06 A3034 RMK A01 T01030057  RH  073%=      5-min Rain = 0
KWA1 082052Z 09002KT 10/06 A3034 RMK A01 T01020057  RH  074%=      5-min Rain = 0
KWA1 082053Z 07003KT 10/06 A3034 RMK A01 T01010055  RH  073%=      5-min Rain = 0
KWA1 082054Z 06002KT 10/06 A3034 RMK A01 T01010059  RH  075%=      5-min Rain = 0
KWA1 082055Z 04003KT 10/06 A3034 RMK A01 T01010058  RH  074%=      5-min Rain = 0
KWA1 082056Z 05003KT 10/06 A3034 RMK A01 T01010056  RH  074%=      5-min Rain = 0
KWA1 082057Z 05003KT 10/06 A3034 RMK A01 T01000057  RH  074%=      5-min Rain = 0
KWA1 082058Z 04002KT 10/05 A3034 RMK A01 T00990054  RH  073%=      5-min Rain = 0
KWA1 082059Z 03002KT 10/06 A3034 RMK A01 T00990058  RH  076%=      5-min Rain = 0
KWA1 082100Z 03001KT 10/06 A3034 RMK A01 T01000056  RH  074%=      5-min Rain = 0
KWA1 082101Z 06000KT 10/06 A3034 RMK A01 T01010057  RH  074%=      5-min Rain = 0
KWA1 082102Z 06001KT 10/06 A3034 RMK A01 T01020056  RH  073%=      5-min Rain = 0
KWA1 082103Z 02002KT 10/06 A3034 RMK A01 T01030056  RH  073%=      5-min Rain = 0
KWA1 082104Z 03001KT 10/06 A3034 RMK A01 T01030058  RH  073%=      5-min Rain = 0
KWA1 082105Z 05001KT 10/06 A3034 RMK A01 T01030057  RH  073%=      5-min Rain = 0
KWA1 082106Z 04001KT 10/06 A3034 RMK A01 T01030058  RH  074%=      5-min Rain = 0
KWA1 082107Z 03002KT 10/06 A3034 RMK A01 T01030057  RH  073%=      5-min Rain = 0
KWA1 082108Z 04002KT 10/06 A3034 RMK A01 T01020055  RH  072%=      5-min Rain = 0
KWA1 082109Z 05002KT 10/06 A3034 RMK A01 T01020058  RH  074%=      5-min Rain = 0
KWA1 082110Z 06002KT 10/06 A3034 RMK A01 T01010058  RH  074%=      5-min Rain = 0
KWA1 082111Z 06003KT 10/06 A3034 RMK A01 T01010055  RH  073%=      5-min Rain = 0
KWA1 082112Z 05004KT 10/06 A3034 RMK A01 T01010061  RH  076%=      5-min Rain = 0
KWA1 082113Z 04003KT 10/06 A3034 RMK A01 T01010059  RH  075%=      5-min Rain = 0
KWA1 082114Z 04001KT 10/06 A3034 RMK A01 T01010057  RH  074%=      5-min Rain = 0
KWA1 082115Z 00000KT 10/06 A3034 RMK A01 T01010059  RH  075%=      5-min Rain = 0
KWA1 082116Z 03001KT 10/06 A3034 RMK A01 T01030064  RH  076%=      5-min Rain = 0
KWA1 082117Z 12001KT 11/06 A3034 RMK A01 T01050064  RH  075%=      5-min Rain = 0
KWA1 082118Z 11002KT 11/06 A3034 RMK A01 T01060061  RH  073%=      5-min Rain = 0
KWA1 082119Z 10002KT 11/06 A3034 RMK A01 T01070062  RH  074%=      5-min Rain = 0
KWA1 082120Z 11003KT 11/07 A3034 RMK A01 T01070065  RH  075%=      5-min Rain = 0
KWA1 082121Z 12003KT 11/06 A3034 RMK A01 T01060058  RH  072%=      5-min Rain = 0
KWA1 082122Z 09003KT 11/06 A3034 RMK A01 T01050058  RH  073%=      5-min Rain = 0
KWA1 082123Z 10002KT 10/06 A3034 RMK A01 T01040059  RH  074%=      5-min Rain = 0
KWA1 082124Z 09001KT 10/06 A3034 RMK A01 T01040058  RH  074%=      5-min Rain = 0
KWA1 082125Z 08002KT 10/06 A3034 RMK A01 T01030056  RH  072%=      5-min Rain = 0
KWA1 082126Z 11001KT 10/06 A3034 RMK A01 T01020055  RH  072%=      5-min Rain = 0
KWA1 082127Z 14000KT 10/06 A3034 RMK A01 T01030058  RH  074%=      5-min Rain = 0
KWA1 082128Z 00000KT 10/06 A3034 RMK A01 T01040057  RH  073%=      5-min Rain = 0
KWA1 082129Z 03001KT 11/06 A3034 RMK A01 T01050058  RH  073%=      5-min Rain = 0
KWA1 082130Z 04002KT 11/06 A3034 RMK A01 T01050059  RH  073%=      5-min Rain = 0
KWA1 082131Z 07001KT 11/06 A3034 RMK A01 T01050061  RH  074%=      5-min Rain = 0
KWA1 082132Z 08001KT 10/06 A3034 RMK A01 T01040061  RH  074%=      5-min Rain = 0
KWA1 082133Z 10002KT 10/06 A3034 RMK A01 T01040058  RH  073%=      5-min Rain = 0
KWA1 082134Z 13002KT 10/06 A3034 RMK A01 T01040057  RH  073%=      5-min Rain = 0
KWA1 082135Z 12001KT 10/05 A3034 RMK A01 T01020054  RH  072%=      5-min Rain = 0
KWA1 082136Z 04000KT 10/05 A3034 RMK A01 T01020054  RH  072%=      5-min Rain = 0
KWA1 082137Z 00000KT 10/06 A3034 RMK A01 T01020055  RH  073%=      5-min Rain = 0
KWA1 082138Z 25001KT 10/06 A3034 RMK A01 T01030058  RH  074%=      5-min Rain = 0
KWA1 082139Z 19001KT 10/06 A3033 RMK A01 T01040061  RH  075%=      5-min Rain = 0
KWA1 082140Z 21001KT 11/06 A3033 RMK A01 T01050063  RH  076%=      5-min Rain = 0
KWA1 082141Z 15001KT 11/06 A3033 RMK A01 T01060063  RH  075%=      5-min Rain = 0
KWA1 082142Z 14002KT 11/06 A3033 RMK A01 T01060061  RH  074%=      5-min Rain = 0
KWA1 082143Z 13002KT 11/06 A3033 RMK A01 T01070059  RH  072%=      5-min Rain = 0
KWA1 082144Z 14002KT 11/06 A3033 RMK A01 T01060056  RH  071%=      5-min Rain = 0
KWA1 082145Z 14001KT 11/06 A3033 RMK A01 T01050059  RH  073%=      5-min Rain = 0
KWA1 082146Z 14002KT 11/06 A3033 RMK A01 T01060062  RH  074%=      5-min Rain = 0
KWA1 082147Z 14002KT 11/06 A3033 RMK A01 T01070061  RH  073%=      5-min Rain = 0
KWA1 082148Z 11003KT 11/06 A3033 RMK A01 T01080061  RH  073%=      5-min Rain = 0
KWA1 082149Z 10003KT 11/06 A3033 RMK A01 T01080061  RH  073%=      5-min Rain = 0
KWA1 082150Z 09002KT 11/06 A3033 RMK A01 T01080060  RH  072%=      5-min Rain = 0
KWA1 082151Z 11002KT 11/06 A3033 RMK A01 T01080061  RH  073%=      5-min Rain = 0
KWA1 082152Z 12002KT 11/06 A3033 RMK A01 T01080059  RH  072%=      5-min Rain = 0
KWA1 082153Z 13002KT 11/06 A3033 RMK A01 T01070056  RH  071%=      5-min Rain = 0
KWA1 082154Z 15002KT 11/06 A3033 RMK A01 T01050058  RH  073%=      5-min Rain = 0
KWA1 082155Z 12002KT 11/06 A3033 RMK A01 T01060060  RH  073%=      5-min Rain = 0
KWA1 082156Z 14001KT 11/06 A3033 RMK A01 T01070060  RH  073%=      5-min Rain = 0
KWA1 082157Z 21001KT 11/06 A3033 RMK A01 T01070059  RH  072%=      5-min Rain = 0
KWA1 082158Z 30000KT 11/06 A3033 RMK A01 T01070057  RH  071%=      5-min Rain = 0
KWA1 082159Z 28001KT 11/06 A3033 RMK A01 T01070058  RH  072%=      5-min Rain = 0
KWA1 082200Z 24002KT 11/06 A3033 RMK A01 T01060059  RH  072%=      5-min Rain = 0
KWA1 082201Z 22001KT 11/06 A3033 RMK A01 T01060057  RH  072%=      5-min Rain = 0
KWA1 082202Z 20002KT 11/06 A3033 RMK A01 T01050058  RH  073%=      5-min Rain = 0
KWA1 082203Z 20002KT 11/06 A3033 RMK A01 T01050060  RH  074%=      5-min Rain = 0
KWA1 082204Z 21002KT 11/06 A3033 RMK A01 T01050059  RH  073%=      5-min Rain = 0
KWA1 082205Z 21001KT 11/06 A3033 RMK A01 T01050061  RH  074%=      5-min Rain = 0
KWA1 082206Z 21001KT 11/06 A3033 RMK A01 T01050057  RH  072%=      5-min Rain = 0
KWA1 082207Z 22000KT 11/06 A3033 RMK A01 T01050056  RH  072%=      5-min Rain = 0
KWA1 082208Z 22000KT 11/06 A3033 RMK A01 T01050056  RH  072%=      5-min Rain = 0
KWA1 082209Z 00000KT 11/06 A3033 RMK A01 T01050056  RH  071%=      5-min Rain = 0
KWA1 082210Z 00000KT 11/06 A3033 RMK A01 T01060056  RH  071%=      5-min Rain = 0
KWA1 082211Z 00000KT 11/06 A3033 RMK A01 T01070058  RH  072%=      5-min Rain = 0
KWA1 082212Z 00000KT 11/06 A3033 RMK A01 T01070058  RH  072%=      5-min Rain = 0
KWA1 082213Z 00000KT 11/06 A3033 RMK A01 T01080057  RH  071%=      5-min Rain = 0
KWA1 082214Z 20000KT 11/06 A3033 RMK A01 T01090059  RH  071%=      5-min Rain = 0
KWA1 082215Z 18001KT 11/06 A3033 RMK A01 T01100057  RH  070%=      5-min Rain = 0
KWA1 082216Z 16002KT 11/06 A3033 RMK A01 T01100057  RH  070%=      5-min Rain = 0
KWA1 082217Z 19002KT 11/06 A3033 RMK A01 T01090058  RH  071%=      5-min Rain = 0
KWA1 082218Z 17001KT 11/06 A3034 RMK A01 T01090059  RH  071%=      5-min Rain = 0
KWA1 082219Z 18001KT 11/06 A3034 RMK A01 T01090058  RH  071%=      5-min Rain = 0
KWA1 082220Z 18000KT 11/06 A3034 RMK A01 T01100060  RH  071%=      5-min Rain = 0
KWA1 082221Z 00000KT 11/06 A3034 RMK A01 T01110060  RH  071%=      5-min Rain = 0
KWA1 082222Z 25000KT 11/06 A3034 RMK A01 T01110060  RH  071%=      5-min Rain = 0
KWA1 082223Z 30001KT 11/06 A3034 RMK A01 T01110061  RH  071%=      5-min Rain = 0
KWA1 082224Z 31001KT 11/06 A3034 RMK A01 T01110063  RH  072%=      5-min Rain = 0
KWA1 082225Z 31001KT 11/06 A3034 RMK A01 T01100059  RH  071%=      5-min Rain = 0
KWA1 082226Z 30000KT 11/06 A3034 RMK A01 T01100060  RH  071%=      5-min Rain = 0
KWA1 082227Z 14000KT 11/06 A3034 RMK A01 T01090059  RH  071%=      5-min Rain = 0
KWA1 082228Z 14002KT 11/06 A3034 RMK A01 T01090061  RH  072%=      5-min Rain = 0
KWA1 082229Z 14002KT 11/06 A3033 RMK A01 T01080060  RH  072%=      5-min Rain = 0
KWA1 082230Z 15002KT 11/06 A3033 RMK A01 T01080059  RH  072%=      5-min Rain = 0
KWA1 082231Z 13002KT 11/06 A3033 RMK A01 T01070058  RH  072%=      5-min Rain = 0
KWA1 082232Z 14003KT 11/06 A3033 RMK A01 T01060057  RH  071%=      5-min Rain = 0
KWA1 082233Z 14002KT 11/06 A3033 RMK A01 T01060058  RH  072%=      5-min Rain = 0
KWA1 082234Z 16000KT 11/06 A3033 RMK A01 T01060058  RH  072%=      5-min Rain = 0
KWA1 082235Z 24000KT 11/06 A3033 RMK A01 T01050057  RH  072%=      5-min Rain = 0
KWA1 082236Z 10000KT 11/06 A3033 RMK A01 T01050060  RH  073%=      5-min Rain = 0
KWA1 082237Z 10002KT 11/06 A3033 RMK A01 T01060064  RH  075%=      5-min Rain = 0
KWA1 082238Z 09001KT 11/06 A3033 RMK A01 T01060061  RH  074%=      5-min Rain = 0
KWA1 082239Z 11001KT 11/06 A3033 RMK A01 T01060060  RH  073%=      5-min Rain = 0
KWA1 082240Z 12000KT 11/06 A3033 RMK A01 T01060062  RH  074%=      5-min Rain = 0
KWA1 082241Z 11001KT 11/06 A3033 RMK A01 T01060059  RH  073%=      5-min Rain = 0
KWA1 082242Z 13003KT 11/06 A3033 RMK A01 T01060061  RH  074%=      5-min Rain = 0
KWA1 082243Z 13003KT 11/06 A3033 RMK A01 T01060062  RH  074%=      5-min Rain = 0
KWA1 082244Z 14003KT 11/06 A3033 RMK A01 T01050061  RH  074%=      5-min Rain = 0
KWA1 082245Z 15002KT 11/06 A3033 RMK A01 T01050062  RH  075%=      5-min Rain = 0
KWA1 082246Z 15002KT 11/06 A3033 RMK A01 T01050063  RH  075%=      5-min Rain = 0
KWA1 082247Z 15003KT 10/06 A3033 RMK A01 T01040061  RH  075%=      5-min Rain = 0
KWA1 082248Z 15003KT 10/06 A3033 RMK A01 T01040060  RH  074%=      5-min Rain = 0
KWA1 082249Z 13003KT 10/06 A3033 RMK A01 T01040061  RH  075%=      5-min Rain = 0
KWA1 082250Z 14002KT 10/06 A3033 RMK A01 T01040062  RH  075%=      5-min Rain = 0
KWA1 082251Z 13001KT 10/06 A3033 RMK A01 T01040062  RH  075%=      5-min Rain = 0
KWA1 082252Z 12001KT 10/06 A3033 RMK A01 T01040061  RH  075%=      5-min Rain = 0
KWA1 082253Z 12001KT 10/06 A3033 RMK A01 T01040060  RH  074%=      5-min Rain = 0
KWA1 082254Z 13001KT 10/06 A3033 RMK A01 T01030059  RH  074%=      5-min Rain = 0
KWA1 082255Z 13001KT 10/06 A3033 RMK A01 T01030058  RH  073%=      5-min Rain = 0
KWA1 082256Z 18001KT 10/06 A3033 RMK A01 T01030059  RH  074%=      5-min Rain = 0
KWA1 082257Z 17002KT 10/06 A3033 RMK A01 T01040061  RH  075%=      5-min Rain = 0
KWA1 082258Z 17001KT 10/06 A3033 RMK A01 T01040061  RH  075%=      5-min Rain = 0
KWA1 082259Z 15002KT 10/06 A3033 RMK A01 T01040060  RH  074%=      5-min Rain = 0
KWA1 082300Z 14002KT 10/06 A3033 RMK A01 T01040061  RH  075%=      5-min Rain = 0
KWA1 082301Z 14001KT 10/06 A3033 RMK A01 T01040060  RH  074%=      5-min Rain = 0
KWA1 082302Z 15001KT 10/06 A3033 RMK A01 T01040060  RH  074%=      5-min Rain = 0
KWA1 082303Z 14001KT 10/06 A3033 RMK A01 T01040061  RH  075%=      5-min Rain = 0
KWA1 082304Z 14001KT 10/06 A3033 RMK A01 T01040064  RH  076%=      5-min Rain = 0
KWA1 082305Z 12002KT 10/06 A3033 RMK A01 T01040063  RH  076%=      5-min Rain = 0
KWA1 082306Z 12001KT 10/06 A3033 RMK A01 T01040062  RH  075%=      5-min Rain = 0
KWA1 082307Z 13001KT 10/06 A3033 RMK A01 T01040062  RH  075%=      5-min Rain = 0
KWA1 082308Z 13002KT 10/06 A3033 RMK A01 T01040063  RH  076%=      5-min Rain = 0
KWA1 082309Z 15002KT 10/06 A3033 RMK A01 T01040062  RH  075%=      5-min Rain = 0
KWA1 082310Z 14002KT 10/06 A3033 RMK A01 T01040062  RH  076%=      5-min Rain = 0
KWA1 082311Z 14001KT 10/06 A3033 RMK A01 T01040061  RH  075%=      5-min Rain = 0
KWA1 082312Z 15001KT 10/06 A3033 RMK A01 T01030059  RH  074%=      5-min Rain = 0
KWA1 082313Z 15002KT 10/06 A3033 RMK A01 T01030060  RH  075%=      5-min Rain = 0
KWA1 082314Z 16002KT 10/06 A3033 RMK A01 T01030062  RH  076%=      5-min Rain = 0
KWA1 082315Z 17002KT 10/06 A3033 RMK A01 T01030063  RH  076%=      5-min Rain = 0
KWA1 082316Z 17001KT 10/06 A3033 RMK A01 T01040064  RH  076%=      5-min Rain = 0
KWA1 082317Z 17002KT 10/06 A3033 RMK A01 T01030063  RH  076%=      5-min Rain = 0
KWA1 082318Z 17003KT 10/06 A3033 RMK A01 T01030064  RH  077%=      5-min Rain = 0
KWA1 082319Z 16003KT 10/07 A3033 RMK A01 T01030066  RH  078%=      5-min Rain = 0
KWA1 082320Z 18002KT 10/06 A3033 RMK A01 T01020063  RH  077%=      5-min Rain = 0
KWA1 082321Z 18002KT 10/07 A3033 RMK A01 T01030065  RH  078%=      5-min Rain = 0
KWA1 082322Z 17002KT 10/07 A3033 RMK A01 T01020067  RH  079%=      5-min Rain = 0
KWA1 082323Z 17003KT 10/07 A3034 RMK A01 T01020067  RH  079%=      5-min Rain = 0
KWA1 082324Z 17002KT 10/07 A3034 RMK A01 T01020065  RH  078%=      5-min Rain = 0
KWA1 082325Z 17002KT 10/07 A3034 RMK A01 T01020065  RH  078%=      5-min Rain = 0
KWA1 082326Z 17002KT 10/06 A3034 RMK A01 T01020063  RH  077%=      5-min Rain = 0
KWA1 082327Z 16002KT 10/07 A3034 RMK A01 T01020065  RH  078%=      5-min Rain = 0
KWA1 082328Z 16002KT 10/07 A3034 RMK A01 T01010065  RH  078%=      5-min Rain = 0
KWA1 082329Z 16002KT 10/06 A3034 RMK A01 T01010064  RH  078%=      5-min Rain = 0
KWA1 082330Z 16002KT 10/06 A3034 RMK A01 T01010063  RH  078%=      5-min Rain = 0
KWA1 082331Z 16002KT 10/07 A3034 RMK A01 T01010066  RH  079%=      5-min Rain = 0
KWA1 082332Z 17002KT 10/07 A3034 RMK A01 T01000066  RH  079%=      5-min Rain = 0
KWA1 082333Z 17002KT 10/07 A3034 RMK A01 T01000065  RH  079%=      5-min Rain = 0
KWA1 082334Z 16002KT 10/07 A3034 RMK A01 T01000065  RH  079%=      5-min Rain = 0
KWA1 082335Z 16002KT 10/07 A3034 RMK A01 T01000065  RH  079%=      5-min Rain = 0
KWA1 082336Z 15002KT 10/07 A3034 RMK A01 T01000065  RH  079%=      5-min Rain = 0
KWA1 082337Z 16002KT 10/07 A3034 RMK A01 T00990066  RH  080%=      5-min Rain = 0
KWA1 082338Z 15002KT 10/07 A3033 RMK A01 T00990066  RH  080%=      5-min Rain = 0
KWA1 082339Z 15002KT 10/07 A3033 RMK A01 T00990066  RH  080%=      5-min Rain = 0
KWA1 082340Z 14003KT 10/07 A3033 RMK A01 T00990067  RH  081%=      5-min Rain = 0
KWA1 082341Z 15003KT 10/07 A3033 RMK A01 T00980067  RH  081%=      5-min Rain = 0
KWA1 082342Z 16002KT 10/07 A3033 RMK A01 T00980066  RH  081%=      5-min Rain = 0
KWA1 082343Z 16003KT 10/07 A3033 RMK A01 T00980067  RH  081%=      5-min Rain = 0
KWA1 082344Z 16003KT 10/07 A3033 RMK A01 T00970067  RH  081%=      5-min Rain = 0
KWA1 082345Z 17003KT 10/07 A3033 RMK A01 T00970067  RH  082%=      5-min Rain = 0
KWA1 082346Z 17002KT 10/07 A3034 RMK A01 T00970067  RH  082%=      5-min Rain = 0
KWA1 082347Z 16002KT 10/07 A3034 RMK A01 T00960067  RH  082%=      5-min Rain = 0
KWA1 082348Z 17002KT 10/07 A3034 RMK A01 T00970068  RH  082%=      5-min Rain = 0
KWA1 082349Z 16002KT 10/07 A3034 RMK A01 T00960068  RH  082%=      5-min Rain = 0
KWA1 082350Z 16002KT 10/07 A3034 RMK A01 T00960069  RH  083%=      5-min Rain = 0
KWA1 082351Z 17003KT 10/07 A3034 RMK A01 T00970070  RH  083%=      5-min Rain = 0
KWA1 082352Z 17003KT 10/07 A3034 RMK A01 T00960069  RH  083%=      5-min Rain = 0
KWA1 082353Z 17003KT 10/07 A3033 RMK A01 T00960068  RH  083%=      5-min Rain = 0
KWA1 082354Z 17003KT 10/07 A3033 RMK A01 T00950068  RH  083%=      5-min Rain = 0
KWA1 082355Z 17003KT 10/07 A3033 RMK A01 T00960069  RH  083%=      5-min Rain = 0
KWA1 082356Z 17003KT 10/07 A3033 RMK A01 T00950069  RH  083%=      5-min Rain = 0
KWA1 082357Z 18003KT 10/07 A3034 RMK A01 T00950069  RH  084%=      5-min Rain = 0
KWA1 082358Z 17003KT 10/07 A3034 RMK A01 T00950070  RH  084%=      5-min Rain = 0
KWA1 082359Z 18003KT 10/07 A3034 RMK A01 T00950070  RH  085%=      5-min Rain = 0
KWA1 090000Z 18003KT 10/07 A3034 RMK A01 T00950070  RH  085%=      5-min Rain = 0
KWA1 090001Z 18003KT 09/07 A3034 RMK A01 T00940070  RH  085%=      5-min Rain = 0
KWA1 090002Z 18003KT 09/07 A3034 RMK A01 T00940069  RH  085%=      5-min Rain = 0
KWA1 090003Z 18003KT 09/07 A3034 RMK A01 T00940069  RH  085%=      5-min Rain = 0
KWA1 090004Z 18003KT 09/07 A3034 RMK A01 T00940070  RH  085%=      5-min Rain = 0
KWA1 090005Z 18003KT 09/07 A3034 RMK A01 T00940071  RH  085%=      5-min Rain = 0
KWA1 090006Z 18003KT 09/07 A3034 RMK A01 T00940071  RH  086%=      5-min Rain = 0
KWA1 090007Z 18003KT 09/07 A3034 RMK A01 T00940071  RH  086%=      5-min Rain = 0
KWA1 090008Z 18003KT 09/07 A3034 RMK A01 T00930071  RH  086%=      5-min Rain = 0
KWA1 090009Z 18003KT 09/07 A3034 RMK A01 T00930070  RH  086%=      5-min Rain = 0
KWA1 090010Z 18003KT 09/07 A3034 RMK A01 T00930070  RH  086%=      5-min Rain = 0
KWA1 090011Z 18003KT 09/07 A3033 RMK A01 T00920070  RH  086%=      5-min Rain = 0
KWA1 090012Z 18003KT 09/07 A3033 RMK A01 T00920071  RH  087%=      5-min Rain = 0
KWA1 090013Z 18003KT 09/07 A3033 RMK A01 T00920071  RH  087%=      5-min Rain = 0
KWA1 090014Z 18003KT 09/07 A3033 RMK A01 T00920071  RH  087%=      5-min Rain = 0
KWA1 090015Z 18003KT 09/07 A3034 RMK A01 T00920071  RH  087%=      5-min Rain = 0
KWA1 090016Z 18003KT 09/07 A3034 RMK A01 T00910070  RH  087%=      5-min Rain = 0
KWA1 090017Z 18003KT 09/07 A3034 RMK A01 T00900070  RH  087%=      5-min Rain = 0
KWA1 090018Z 19003KT 09/07 A3034 RMK A01 T00900069  RH  087%=      5-min Rain = 0
KWA1 090019Z 19003KT 09/07 A3034 RMK A01 T00890069  RH  087%=      5-min Rain = 0
KWA1 090020Z 19003KT 09/07 A3034 RMK A01 T00890068  RH  087%=      5-min Rain = 0
KWA1 090021Z 19003KT 09/07 A3034 RMK A01 T00890069  RH  087%=      5-min Rain = 0
KWA1 090022Z 19003KT 09/07 A3034 RMK A01 T00880069  RH  088%=      5-min Rain = 0
KWA1 090023Z 19004KT 09/07 A3034 RMK A01 T00880069  RH  088%=      5-min Rain = 0
KWA1 090024Z 19004KT 09/07 A3034 RMK A01 T00880069  RH  088%=      5-min Rain = 0
KWA1 090025Z 19004KT 09/07 A3034 RMK A01 T00880070  RH  089%=      5-min Rain = 0
KWA1 090026Z 18004KT 09/07 A3034 RMK A01 T00870071  RH  089%=      5-min Rain = 0
KWA1 090027Z 18004KT 09/07 A3034 RMK A01 T00870071  RH  090%=      5-min Rain = 0
KWA1 090028Z 18004KT 09/07 A3034 RMK A01 T00870071  RH  089%=      5-min Rain = 0
KWA1 090029Z 18004KT 09/07 A3034 RMK A01 T00870070  RH  089%=      5-min Rain = 0
KWA1 090030Z 18003KT 09/07 A3034 RMK A01 T00870070  RH  089%=      5-min Rain = 0
KWA1 090031Z 18003KT 09/07 A3034 RMK A01 T00870070  RH  089%=      5-min Rain = 0
KWA1 090032Z 18003KT 09/07 A3034 RMK A01 T00870069  RH  088%=      5-min Rain = 0
KWA1 090033Z 17003KT 09/07 A3034 RMK A01 T00870069  RH  088%=      5-min Rain = 0
KWA1 090034Z 16003KT 09/07 A3034 RMK A01 T00870068  RH  088%=      5-min Rain = 0
KWA1 090035Z 16003KT 09/07 A3034 RMK A01 T00870068  RH  088%=      5-min Rain = 0
KWA1 090036Z 15003KT 09/07 A3034 RMK A01 T00870068  RH  088%=      5-min Rain = 0
KWA1 090037Z 14003KT 09/07 A3034 RMK A01 T00870069  RH  088%=      5-min Rain = 0
KWA1 090038Z 14003KT 09/07 A3034 RMK A01 T00860069  RH  089%=      5-min Rain = 0
KWA1 090039Z 13004KT 09/07 A3034 RMK A01 T00860069  RH  089%=      5-min Rain = 0
KWA1 090040Z 14004KT 09/07 A3034 RMK A01 T00860069  RH  089%=      5-min Rain = 0
KWA1 090041Z 14004KT 09/07 A3034 RMK A01 T00850068  RH  089%=      5-min Rain = 0
KWA1 090042Z 15004KT 09/07 A3034 RMK A01 T00850068  RH  089%=      5-min Rain = 0
KWA1 090043Z 15004KT 09/07 A3034 RMK A01 T00850068  RH  089%=      5-min Rain = 0
KWA1 090044Z 15004KT 09/07 A3034 RMK A01 T00850068  RH  089%=      5-min Rain = 0
KWA1 090045Z 15004KT 09/07 A3034 RMK A01 T00850069  RH  089%=      5-min Rain = 0
KWA1 090046Z 15004KT 09/07 A3034 RMK A01 T00850069  RH  089%=      5-min Rain = 0
KWA1 090047Z 15004KT 09/07 A3034 RMK A01 T00850069  RH  090%=      5-min Rain = 0
KWA1 090048Z 15004KT 09/07 A3034 RMK A01 T00850069  RH  090%=      5-min Rain = 0
KWA1 090049Z 15004KT 09/07 A3034 RMK A01 T00850069  RH  090%=      5-min Rain = 0
KWA1 090050Z 14004KT 09/07 A3034 RMK A01 T00850069  RH  090%=      5-min Rain = 0
KWA1 090051Z 14004KT 09/07 A3034 RMK A01 T00850069  RH  090%=      5-min Rain = 0
KWA1 090052Z 14004KT 09/07 A3034 RMK A01 T00850069  RH  090%=      5-min Rain = 0
KWA1 090053Z 14004KT 09/07 A3034 RMK A01 T00850069  RH  090%=      5-min Rain = 0
KWA1 090054Z 14004KT 09/07 A3034 RMK A01 T00850068  RH  089%=      5-min Rain = 0
KWA1 090055Z 14004KT 08/07 A3034 RMK A01 T00840067  RH  089%=      5-min Rain = 0
KWA1 090056Z 14004KT 09/07 A3034 RMK A01 T00850067  RH  089%=      5-min Rain = 0
KWA1 090057Z 15004KT 09/07 A3034 RMK A01 T00850067  RH  089%=      5-min Rain = 0
KWA1 090058Z 15004KT 08/07 A3034 RMK A01 T00840067  RH  089%=      5-min Rain = 0
KWA1 090059Z 15004KT 08/07 A3034 RMK A01 T00840067  RH  089%=      5-min Rain = 0
KWA1 090100Z 15004KT 09/07 A3034 RMK A01 T00850067  RH  089%=      5-min Rain = 0
KWA1 090101Z 15004KT 09/07 A3035 RMK A01 T00850067  RH  089%=      5-min Rain = 0
KWA1 090102Z 15004KT 08/07 A3035 RMK A01 T00840067  RH  089%=      5-min Rain = 0
KWA1 090103Z 15004KT 08/07 A3035 RMK A01 T00840067  RH  089%=      5-min Rain = 0
KWA1 090104Z 15004KT 08/07 A3035 RMK A01 T00840067  RH  089%=      5-min Rain = 0
KWA1 090105Z 15004KT 08/07 A3035 RMK A01 T00840067  RH  089%=      5-min Rain = 0
KWA1 090106Z 15004KT 08/07 A3035 RMK A01 T00840067  RH  089%=      5-min Rain = 0
KWA1 090107Z 15004KT 08/07 A3035 RMK A01 T00840067  RH  089%=      5-min Rain = 0
KWA1 090108Z 15004KT 08/07 A3035 RMK A01 T00840067  RH  089%=      5-min Rain = 0
KWA1 090109Z 15004KT 08/07 A3035 RMK A01 T00840067  RH  089%=      5-min Rain = 0
KWA1 090110Z 15004KT 08/07 A3035 RMK A01 T00830067  RH  089%=      5-min Rain = 0
KWA1 090111Z 15004KT 08/07 A3035 RMK A01 T00830067  RH  089%=      5-min Rain = 0
KWA1 090112Z 14004KT 08/07 A3035 RMK A01 T00830067  RH  090%=      5-min Rain = 0
KWA1 090113Z 14004KT 08/07 A3035 RMK A01 T00830067  RH  090%=      5-min Rain = 0
KWA1 090114Z 13003KT 08/07 A3035 RMK A01 T00830067  RH  090%=      5-min Rain = 0
KWA1 090115Z 14004KT 08/07 A3035 RMK A01 T00830067  RH  090%=      5-min Rain = 0
KWA1 090116Z 14004KT 08/07 A3035 RMK A01 T00820067  RH  090%=      5-min Rain = 0
KWA1 090117Z 15004KT 08/07 A3035 RMK A01 T00820067  RH  090%=      5-min Rain = 0
KWA1 090118Z 14004KT 08/07 A3035 RMK A01 T00820068  RH  090%=      5-min Rain = 0
KWA1 090119Z 14004KT 08/07 A3035 RMK A01 T00820068  RH  091%=      5-min Rain = 0
KWA1 090120Z 14004KT 08/07 A3034 RMK A01 T00820068  RH  091%=      5-min Rain = 0
KWA1 090121Z 15004KT 08/07 A3034 RMK A01 T00820068  RH  091%=      5-min Rain = 0
KWA1 090122Z 15004KT 08/07 A3034 RMK A01 T00820068  RH  091%=      5-min Rain = 0
KWA1 090123Z 15004KT 08/07 A3034 RMK A01 T00820068  RH  091%=      5-min Rain = 0
KWA1 090124Z 15004KT 08/07 A3034 RMK A01 T00820068  RH  091%=      5-min Rain = 0
KWA1 090125Z 16004KT 08/07 A3034 RMK A01 T00820068  RH  091%=      5-min Rain = 0
KWA1 090126Z 16004KT 08/07 A3035 RMK A01 T00820068  RH  091%=      5-min Rain = 0
KWA1 090127Z 15004KT 08/07 A3035 RMK A01 T00820068  RH  091%=      5-min Rain = 0
KWA1 090128Z 15004KT 08/07 A3035 RMK A01 T00820068  RH  091%=      5-min Rain = 0
KWA1 090129Z 15004KT 08/07 A3035 RMK A01 T00810068  RH  091%=      5-min Rain = 0
KWA1 090130Z 15004KT 08/07 A3035 RMK A01 T00810068  RH  091%=      5-min Rain = 0
KWA1 090131Z 15004KT 08/07 A3035 RMK A01 T00810067  RH  091%=      5-min Rain = 0
KWA1 090132Z 16004KT 08/07 A3035 RMK A01 T00810067  RH  091%=      5-min Rain = 0
KWA1 090133Z 16004KT 08/07 A3035 RMK A01 T00810067  RH  091%=      5-min Rain = 0
KWA1 090134Z 16004KT 08/07 A3035 RMK A01 T00810067  RH  091%=      5-min Rain = 0
KWA1 090135Z 16004KT 08/07 A3035 RMK A01 T00810068  RH  091%=      5-min Rain = 0
KWA1 090136Z 16004KT 08/07 A3035 RMK A01 T00810067  RH  091%=      5-min Rain = 0
KWA1 090137Z 15004KT 08/07 A3035 RMK A01 T00810067  RH  091%=      5-min Rain = 0
KWA1 090138Z 15003KT 08/07 A3035 RMK A01 T00810067  RH  091%=      5-min Rain = 0
KWA1 090139Z 15003KT 08/07 A3035 RMK A01 T00800067  RH  091%=      5-min Rain = 0
KWA1 090140Z 15003KT 08/07 A3035 RMK A01 T00810067  RH  091%=      5-min Rain = 0
KWA1 090141Z 15004KT 08/07 A3035 RMK A01 T00800067  RH  091%=      5-min Rain = 0
KWA1 090142Z 15004KT 08/07 A3035 RMK A01 T00800067  RH  091%=      5-min Rain = 0
KWA1 090143Z 15004KT 08/07 A3035 RMK A01 T00800067  RH  091%=      5-min Rain = 0
KWA1 090144Z 16004KT 08/07 A3035 RMK A01 T00800066  RH  091%=      5-min Rain = 0
KWA1 090145Z 15004KT 08/07 A3035 RMK A01 T00800066  RH  091%=      5-min Rain = 0
KWA1 090146Z 15004KT 08/07 A3035 RMK A01 T00800066  RH  091%=      5-min Rain = 0
KWA1 090147Z 15004KT 08/07 A3035 RMK A01 T00790066  RH  091%=      5-min Rain = 0
KWA1 090148Z 15004KT 08/07 A3035 RMK A01 T00800066  RH  091%=      5-min Rain = 0
KWA1 090149Z 16004KT 08/07 A3035 RMK A01 T00800066  RH  091%=      5-min Rain = 0
KWA1 090150Z 16004KT 08/07 A3035 RMK A01 T00790066  RH  091%=      5-min Rain = 0
KWA1 090151Z 16004KT 08/07 A3035 RMK A01 T00790066  RH  091%=      5-min Rain = 0
KWA1 090152Z 16004KT 08/07 A3035 RMK A01 T00790066  RH  091%=      5-min Rain = 0
KWA1 090153Z 16004KT 08/07 A3035 RMK A01 T00790065  RH  091%=      5-min Rain = 0
KWA1 090154Z 16004KT 08/07 A3035 RMK A01 T00790066  RH  091%=      5-min Rain = 0
KWA1 090155Z 17004KT 08/07 A3035 RMK A01 T00790066  RH  091%=      5-min Rain = 0
KWA1 090156Z 17004KT 08/07 A3035 RMK A01 T00790066  RH  092%=      5-min Rain = 0
KWA1 090157Z 17004KT 08/07 A3035 RMK A01 T00780065  RH  091%=      5-min Rain = 0
KWA1 090158Z 17004KT 08/07 A3035 RMK A01 T00780065  RH  091%=      5-min Rain = 0
KWA1 090159Z 17004KT 08/07 A3035 RMK A01 T00780065  RH  091%=      5-min Rain = 0
KWA1 090200Z 17004KT 08/06 A3035 RMK A01 T00780064  RH  091%=      5-min Rain = 0
KWA1 090201Z 17004KT 08/06 A3035 RMK A01 T00780064  RH  091%=      5-min Rain = 0
KWA1 090202Z 17004KT 08/06 A3035 RMK A01 T00770064  RH  091%=      5-min Rain = 0
KWA1 090203Z 17004KT 08/06 A3035 RMK A01 T00770064  RH  092%=      5-min Rain = 0
KWA1 090204Z 17004KT 08/07 A3035 RMK A01 T00770065  RH  092%=      5-min Rain = 0
KWA1 090205Z 17004KT 08/06 A3035 RMK A01 T00770064  RH  092%=      5-min Rain = 0
KWA1 090206Z 17004KT 08/07 A3035 RMK A01 T00770065  RH  092%=      5-min Rain = 0
KWA1 090207Z 17004KT 08/07 A3035 RMK A01 T00770065  RH  092%=      5-min Rain = 0
KWA1 090208Z 17004KT 08/07 A3035 RMK A01 T00770065  RH  092%=      5-min Rain = 0
KWA1 090209Z 17004KT 08/07 A3035 RMK A01 T00770065  RH  092%=      5-min Rain = 0
KWA1 090210Z 17004KT 08/06 A3035 RMK A01 T00770064  RH  092%=      5-min Rain = 0
KWA1 090211Z 17004KT 08/06 A3035 RMK A01 T00760064  RH  092%=      5-min Rain = 0
KWA1 090212Z 18004KT 08/06 A3035 RMK A01 T00760064  RH  092%=      5-min Rain = 0
KWA1 090213Z 18004KT 08/06 A3035 RMK A01 T00760064  RH  092%=      5-min Rain = 0
KWA1 090214Z 18005KT 08/06 A3035 RMK A01 T00760064  RH  092%=      5-min Rain = 0
KWA1 090215Z 18004KT 08/07 A3035 RMK A01 T00760065  RH  092%=      5-min Rain = 0
KWA1 090216Z 18004KT 08/07 A3035 RMK A01 T00770065  RH  093%=      5-min Rain = 0
KWA1 090217Z 18004KT 08/07 A3035 RMK A01 T00770065  RH  093%=      5-min Rain = 0
KWA1 090218Z 18004KT 08/07 A3035 RMK A01 T00760065  RH  092%=      5-min Rain = 0
KWA1 090219Z 18004KT 08/07 A3035 RMK A01 T00760065  RH  092%=      5-min Rain = 0
KWA1 090220Z 18004KT 08/07 A3035 RMK A01 T00760065  RH  093%=      5-min Rain = 0
KWA1 090221Z 18004KT 08/07 A3035 RMK A01 T00770065  RH  093%=      5-min Rain = 0
KWA1 090222Z 18004KT 08/07 A3035 RMK A01 T00760065  RH  092%=      5-min Rain = 0
KWA1 090223Z 18004KT 08/06 A3035 RMK A01 T00760064  RH  093%=      5-min Rain = 0
KWA1 090224Z 18004KT 08/07 A3035 RMK A01 T00760065  RH  093%=      5-min Rain = 0
KWA1 090225Z 19004KT 08/07 A3035 RMK A01 T00760065  RH  093%=      5-min Rain = 0
KWA1 090226Z 19004KT 08/06 A3035 RMK A01 T00750064  RH  093%=      5-min Rain = 0
KWA1 090227Z 18004KT 08/06 A3035 RMK A01 T00750064  RH  093%=      5-min Rain = 0
KWA1 090228Z 18004KT 08/06 A3035 RMK A01 T00750064  RH  093%=      5-min Rain = 0
KWA1 090229Z 18004KT 08/06 A3035 RMK A01 T00750064  RH  093%=      5-min Rain = 0
KWA1 090230Z 18004KT 08/06 A3035 RMK A01 T00750064  RH  093%=      5-min Rain = 0
KWA1 090231Z 18004KT 08/06 A3035 RMK A01 T00750064  RH  093%=      5-min Rain = 0
KWA1 090232Z 18005KT 08/06 A3035 RMK A01 T00750064  RH  093%=      5-min Rain = 0
KWA1 090233Z 18004KT 07/06 A3035 RMK A01 T00740063  RH  093%=      5-min Rain = 0
KWA1 090234Z 19004KT 08/06 A3035 RMK A01 T00750064  RH  093%=      5-min Rain = 0
KWA1 090235Z 19004KT 08/06 A3035 RMK A01 T00750064  RH  093%=      5-min Rain = 0
KWA1 090236Z 19004KT 08/06 A3035 RMK A01 T00750064  RH  093%=      5-min Rain = 0
KWA1 090237Z 19004KT 07/06 A3035 RMK A01 T00740063  RH  093%=      5-min Rain = 0
KWA1 090238Z 19004KT 07/06 A3035 RMK A01 T00740063  RH  093%=      5-min Rain = 0
KWA1 090239Z 19004KT 07/06 A3035 RMK A01 T00740063  RH  093%=      5-min Rain = 0
KWA1 090240Z 19004KT 07/06 A3035 RMK A01 T00740063  RH  093%=      5-min Rain = 0
KWA1 090241Z 19005KT 07/06 A3035 RMK A01 T00730062  RH  093%=      5-min Rain = 0
KWA1 090242Z 19005KT 07/06 A3035 RMK A01 T00730062  RH  093%=      5-min Rain = 0
KWA1 090243Z 19005KT 07/06 A3035 RMK A01 T00730062  RH  093%=      5-min Rain = 0
KWA1 090244Z 20005KT 07/06 A3035 RMK A01 T00730062  RH  093%=      5-min Rain = 0
KWA1 090245Z 20005KT 07/06 A3035 RMK A01 T00730062  RH  093%=      5-min Rain = 0
KWA1 090246Z 20005KT 07/06 A3035 RMK A01 T00730062  RH  093%=      5-min Rain = 0
KWA1 090247Z 20005KT 07/06 A3035 RMK A01 T00720062  RH  093%=      5-min Rain = 0
KWA1 090248Z 20005KT 07/06 A3035 RMK A01 T00720062  RH  093%=      5-min Rain = 0
KWA1 090249Z 20005KT 07/06 A3035 RMK A01 T00720062  RH  094%=      5-min Rain = 0
KWA1 090250Z 19005KT 07/06 A3035 RMK A01 T00710062  RH  094%=      5-min Rain = 0
KWA1 090251Z 20005KT 07/06 A3035 RMK A01 T00710062  RH  094%=      5-min Rain = 0
KWA1 090252Z 20005KT 07/06 A3035 RMK A01 T00710062  RH  094%=      5-min Rain = 0
KWA1 090253Z 20004KT 07/06 A3035 RMK A01 T00710062  RH  094%=      5-min Rain = 0
KWA1 090254Z 19004KT 07/06 A3035 RMK A01 T00720063  RH  094%=      5-min Rain = 0
KWA1 090255Z 19004KT 07/06 A3035 RMK A01 T00710063  RH  094%=      5-min Rain = 0
KWA1 090256Z 19005KT 07/06 A3035 RMK A01 T00720063  RH  094%=      5-min Rain = 0
KWA1 090257Z 19005KT 07/06 A3035 RMK A01 T00710063  RH  094%=      5-min Rain = 0
KWA1 090258Z 19005KT 07/06 A3035 RMK A01 T00710063  RH  094%=      5-min Rain = 0
KWA1 090259Z 19005KT 07/06 A3035 RMK A01 T00710063  RH  094%=      5-min Rain = 0
KWA1 090300Z 19005KT 07/06 A3035 RMK A01 T00710063  RH  094%=      5-min Rain = 0
KWA1 090301Z 19005KT 07/06 A3035 RMK A01 T00710063  RH  094%=      5-min Rain = 0
KWA1 090302Z 19006KT 07/06 A3035 RMK A01 T00710063  RH  094%=      5-min Rain = 0
KWA1 090303Z 19006KT 07/06 A3035 RMK A01 T00720063  RH  094%=      5-min Rain = 0
KWA1 090304Z 19005KT 07/06 A3035 RMK A01 T00720063  RH  094%=      5-min Rain = 0
KWA1 090305Z 19005KT 07/06 A3035 RMK A01 T00720063  RH  094%=      5-min Rain = 0
KWA1 090306Z 19006KT 07/06 A3035 RMK A01 T00720063  RH  094%=      5-min Rain = 0
KWA1 090307Z 19006KT 07/06 A3035 RMK A01 T00720063  RH  094%=      5-min Rain = 0
KWA1 090308Z 19005KT 07/06 A3035 RMK A01 T00720062  RH  094%=      5-min Rain = 0
KWA1 090309Z 19005KT 07/06 A3035 RMK A01 T00720062  RH  093%=      5-min Rain = 0
KWA1 090310Z 19005KT 07/06 A3035 RMK A01 T00720062  RH  093%=      5-min Rain = 0
KWA1 090311Z 19005KT 07/06 A3035 RMK A01 T00720062  RH  093%=      5-min Rain = 0
KWA1 090312Z 19006KT 07/06 A3035 RMK A01 T00720062  RH  093%=      5-min Rain = 0
KWA1 090313Z 19005KT 07/06 A3035 RMK A01 T00720062  RH  093%=      5-min Rain = 0
KWA1 090314Z 19006KT 07/06 A3035 RMK A01 T00720061  RH  093%=      5-min Rain = 0
KWA1 090315Z 19005KT 07/06 A3035 RMK A01 T00720061  RH  093%=      5-min Rain = 0
KWA1 090316Z 19005KT 07/06 A3035 RMK A01 T00720062  RH  093%=      5-min Rain = 0
KWA1 090317Z 19005KT 07/06 A3035 RMK A01 T00720061  RH  093%=      5-min Rain = 0
KWA1 090318Z 19005KT 07/06 A3035 RMK A01 T00720061  RH  093%=      5-min Rain = 0
KWA1 090319Z 19005KT 07/06 A3035 RMK A01 T00720061  RH  093%=      5-min Rain = 0
KWA1 090320Z 19005KT 07/06 A3035 RMK A01 T00720061  RH  093%=      5-min Rain = 0
KWA1 090321Z 19004KT 07/06 A3035 RMK A01 T00720061  RH  093%=      5-min Rain = 0
KWA1 090322Z 19005KT 07/06 A3035 RMK A01 T00720061  RH  093%=      5-min Rain = 0
KWA1 090323Z 19004KT 07/06 A3035 RMK A01 T00720061  RH  093%=      5-min Rain = 0
KWA1 090324Z 18005KT 07/06 A3035 RMK A01 T00720061  RH  093%=      5-min Rain = 0
KWA1 090325Z 18005KT 07/06 A3035 RMK A01 T00720061  RH  093%=      5-min Rain = 0
KWA1 090326Z 18005KT 07/06 A3035 RMK A01 T00710061  RH  093%=      5-min Rain = 0
KWA1 090327Z 19005KT 07/06 A3035 RMK A01 T00710061  RH  093%=      5-min Rain = 0
KWA1 090328Z 18005KT 07/06 A3035 RMK A01 T00710061  RH  093%=      5-min Rain = 0
KWA1 090329Z 18004KT 07/06 A3035 RMK A01 T00710061  RH  093%=      5-min Rain = 0
KWA1 090330Z 18004KT 07/06 A3035 RMK A01 T00710060  RH  093%=      5-min Rain = 0
KWA1 090331Z 18004KT 07/06 A3035 RMK A01 T00700060  RH  093%=      5-min Rain = 0
KWA1 090332Z 18004KT 07/06 A3035 RMK A01 T00700060  RH  093%=      5-min Rain = 0
KWA1 090333Z 18004KT 07/06 A3035 RMK A01 T00700060  RH  093%=      5-min Rain = 0
KWA1 090334Z 18004KT 07/06 A3035 RMK A01 T00690059  RH  093%=      5-min Rain = 0
KWA1 090335Z 18004KT 07/06 A3035 RMK A01 T00690059  RH  093%=      5-min Rain = 0
KWA1 090336Z 17003KT 07/06 A3035 RMK A01 T00680058  RH  093%=      5-min Rain = 0
KWA1 090337Z 17003KT 07/06 A3035 RMK A01 T00680057  RH  093%=      5-min Rain = 0
KWA1 090338Z 17003KT 07/06 A3035 RMK A01 T00670058  RH  093%=      5-min Rain = 0
KWA1 090339Z 17004KT 07/06 A3035 RMK A01 T00670057  RH  094%=      5-min Rain = 0
KWA1 090340Z 17004KT 07/06 A3035 RMK A01 T00670057  RH  094%=      5-min Rain = 0
KWA1 090341Z 17004KT 07/06 A3035 RMK A01 T00660057  RH  094%=      5-min Rain = 0
KWA1 090342Z 17004KT 07/06 A3035 RMK A01 T00660057  RH  094%=      5-min Rain = 0
KWA1 090343Z 17005KT 07/06 A3035 RMK A01 T00650056  RH  094%=      5-min Rain = 0
KWA1 090344Z 17005KT 07/06 A3035 RMK A01 T00650057  RH  094%=      5-min Rain = 0
KWA1 090345Z 17005KT 07/06 A3035 RMK A01 T00650056  RH  094%=      5-min Rain = 0
KWA1 090346Z 17005KT 07/06 A3035 RMK A01 T00650056  RH  094%=      5-min Rain = 0
KWA1 090347Z 16004KT 07/06 A3035 RMK A01 T00650056  RH  094%=      5-min Rain = 0
KWA1 090348Z 16004KT 07/06 A3035 RMK A01 T00650056  RH  094%=      5-min Rain = 0
KWA1 090349Z 16004KT 07/06 A3035 RMK A01 T00650056  RH  094%=      5-min Rain = 0
KWA1 090350Z 16004KT 07/06 A3035 RMK A01 T00650056  RH  094%=      5-min Rain = 0
KWA1 090351Z 16004KT 06/06 A3035 RMK A01 T00640056  RH  094%=      5-min Rain = 0
KWA1 090352Z 16004KT 06/06 A3035 RMK A01 T00640056  RH  095%=      5-min Rain = 0
KWA1 090353Z 16004KT 07/06 A3035 RMK A01 T00650057  RH  095%=      5-min Rain = 0
KWA1 090354Z 16004KT 07/06 A3035 RMK A01 T00650057  RH  095%=      5-min Rain = 0
KWA1 090355Z 16004KT 07/06 A3035 RMK A01 T00650057  RH  095%=      5-min Rain = 0
KWA1 090356Z 16004KT 07/06 A3035 RMK A01 T00650057  RH  095%=      5-min Rain = 0
KWA1 090357Z 17004KT 06/06 A3035 RMK A01 T00640056  RH  095%=      5-min Rain = 0
KWA1 090358Z 17004KT 06/06 A3035 RMK A01 T00640056  RH  095%=      5-min Rain = 0
KWA1 090359Z 17004KT 06/06 A3035 RMK A01 T00640056  RH  095%=      5-min Rain = 0
KWA1 090400Z 16004KT 06/06 A3035 RMK A01 T00640056  RH  095%=      5-min Rain = 0
KWA1 090401Z 16004KT 06/06 A3035 RMK A01 T00640056  RH  095%=      5-min Rain = 0
KWA1 090402Z 17004KT 06/06 A3035 RMK A01 T00640056  RH  095%=      5-min Rain = 0
KWA1 090403Z 17004KT 06/06 A3035 RMK A01 T00630056  RH  095%=      5-min Rain = 0
KWA1 090404Z 17004KT 06/06 A3035 RMK A01 T00630056  RH  095%=      5-min Rain = 0
KWA1 090405Z 17004KT 06/06 A3035 RMK A01 T00630056  RH  095%=      5-min Rain = 0
KWA1 090406Z 17004KT 06/06 A3035 RMK A01 T00630056  RH  095%=      5-min Rain = 0
KWA1 090407Z 17004KT 06/06 A3035 RMK A01 T00630056  RH  095%=      5-min Rain = 0
KWA1 090408Z 17004KT 06/06 A3035 RMK A01 T00630056  RH  095%=      5-min Rain = 0
KWA1 090409Z 17004KT 06/06 A3035 RMK A01 T00630056  RH  095%=      5-min Rain = 0
KWA1 090410Z 17004KT 06/06 A3035 RMK A01 T00630056  RH  095%=      5-min Rain = 0
KWA1 090411Z 17005KT 06/06 A3035 RMK A01 T00630056  RH  095%=      5-min Rain = 0
KWA1 090412Z 18005KT 06/06 A3035 RMK A01 T00630056  RH  095%=      5-min Rain = 0
KWA1 090413Z 18005KT 06/06 A3035 RMK A01 T00630056  RH  096%=      5-min Rain = 0
KWA1 090414Z 18005KT 06/06 A3035 RMK A01 T00630056  RH  096%=      5-min Rain = 0
KWA1 090415Z 18005KT 06/06 A3035 RMK A01 T00630057  RH  096%=      5-min Rain = 0
KWA1 090416Z 17005KT 06/06 A3035 RMK A01 T00630056  RH  096%=      5-min Rain = 0
KWA1 090417Z 17005KT 06/06 A3035 RMK A01 T00630057  RH  096%=      5-min Rain = 0
KWA1 090418Z 17005KT 06/06 A3035 RMK A01 T00630056  RH  095%=      5-min Rain = 0
KWA1 090419Z 17005KT 06/06 A3035 RMK A01 T00630056  RH  095%=      5-min Rain = 0
KWA1 090420Z 17005KT 06/06 A3035 RMK A01 T00630056  RH  095%=      5-min Rain = 0
KWA1 090421Z 17005KT 06/06 A3034 RMK A01 T00630056  RH  095%=      5-min Rain = 0
KWA1 090422Z 17005KT 06/06 A3034 RMK A01 T00630056  RH  095%=      5-min Rain = 0
KWA1 090423Z 17005KT 06/06 A3034 RMK A01 T00630056  RH  095%=      5-min Rain = 0
KWA1 090424Z 17005KT 06/06 A3035 RMK A01 T00630056  RH  095%=      5-min Rain = 0
KWA1 090425Z 17005KT 06/06 A3035 RMK A01 T00630056  RH  095%=      5-min Rain = 0
KWA1 090426Z 17005KT 06/06 A3035 RMK A01 T00630056  RH  095%=      5-min Rain = 0
KWA1 090427Z 17005KT 06/06 A3035 RMK A01 T00630056  RH  096%=      5-min Rain = 0
KWA1 090428Z 17004KT 06/06 A3035 RMK A01 T00630056  RH  096%=      5-min Rain = 0
KWA1 090429Z 17005KT 06/06 A3035 RMK A01 T00630056  RH  096%=      5-min Rain = 0
KWA1 090430Z 17005KT 06/06 A3035 RMK A01 T00630056  RH  095%=      5-min Rain = 0
KWA1 090431Z 17004KT 06/06 A3035 RMK A01 T00630056  RH  095%=      5-min Rain = 0
KWA1 090432Z 17005KT 06/06 A3035 RMK A01 T00630056  RH  095%=      5-min Rain = 0
KWA1 090433Z 18004KT 06/06 A3035 RMK A01 T00630056  RH  095%=      5-min Rain = 0
KWA1 090434Z 18004KT 06/06 A3035 RMK A01 T00630056  RH  095%=      5-min Rain = 0
KWA1 090435Z 18004KT 06/06 A3035 RMK A01 T00620056  RH  095%=      5-min Rain = 0
KWA1 090436Z 18004KT 06/06 A3035 RMK A01 T00630056  RH  096%=      5-min Rain = 0
KWA1 090437Z 19005KT 06/06 A3035 RMK A01 T00620056  RH  096%=      5-min Rain = 0
KWA1 090438Z 19005KT 06/06 A3035 RMK A01 T00620055  RH  095%=      5-min Rain = 0
KWA1 090439Z 19005KT 06/06 A3035 RMK A01 T00620055  RH  095%=      5-min Rain = 0
KWA1 090440Z 19005KT 06/05 A3035 RMK A01 T00610054  RH  095%=      5-min Rain = 0
KWA1 090441Z 19005KT 06/05 A3035 RMK A01 T00610054  RH  095%=      5-min Rain = 0
KWA1 090442Z 19005KT 06/05 A3035 RMK A01 T00610054  RH  095%=      5-min Rain = 0
KWA1 090443Z 19005KT 06/05 A3035 RMK A01 T00610054  RH  095%=      5-min Rain = 0
KWA1 090444Z 19005KT 06/05 A3035 RMK A01 T00600054  RH  095%=      5-min Rain = 0
KWA1 090445Z 19005KT 06/05 A3035 RMK A01 T00600054  RH  096%=      5-min Rain = 0
KWA1 090446Z 19005KT 06/05 A3035 RMK A01 T00600054  RH  096%=      5-min Rain = 0
KWA1 090447Z 19005KT 06/05 A3035 RMK A01 T00610054  RH  096%=      5-min Rain = 0
KWA1 090448Z 19005KT 06/05 A3035 RMK A01 T00600054  RH  096%=      5-min Rain = 0
KWA1 090449Z 19005KT 06/05 A3035 RMK A01 T00610054  RH  096%=      5-min Rain = 0
KWA1 090450Z 20004KT 06/05 A3035 RMK A01 T00600054  RH  096%=      5-min Rain = 0
KWA1 090451Z 20004KT 06/05 A3035 RMK A01 T00600054  RH  096%=      5-min Rain = 0
KWA1 090452Z 20004KT 06/05 A3035 RMK A01 T00600054  RH  096%=      5-min Rain = 0
KWA1 090453Z 19004KT 06/05 A3035 RMK A01 T00600054  RH  096%=      5-min Rain = 0
KWA1 090454Z 19004KT 06/05 A3035 RMK A01 T00600054  RH  096%=      5-min Rain = 0
KWA1 090455Z 19004KT 06/05 A3035 RMK A01 T00600054  RH  096%=      5-min Rain = 0
KWA1 090456Z 19004KT 06/05 A3035 RMK A01 T00600054  RH  096%=      5-min Rain = 0
KWA1 090457Z 19004KT 06/05 A3035 RMK A01 T00600054  RH  096%=      5-min Rain = 0
KWA1 090458Z 18003KT 06/05 A3035 RMK A01 T00590053  RH  096%=      5-min Rain = 0
KWA1 090459Z 18004KT 06/05 A3034 RMK A01 T00600054  RH  096%=      5-min Rain = 0
KWA1 090500Z 18003KT 06/05 A3034 RMK A01 T00590053  RH  096%=      5-min Rain = 0
KWA1 090501Z 18003KT 06/05 A3034 RMK A01 T00590053  RH  096%=      5-min Rain = 0
KWA1 090502Z 18004KT 06/05 A3034 RMK A01 T00590053  RH  096%=      5-min Rain = 0
KWA1 090503Z 18004KT 06/05 A3034 RMK A01 T00600054  RH  096%=      5-min Rain = 0
KWA1 090504Z 18004KT 06/05 A3034 RMK A01 T00590054  RH  096%=      5-min Rain = 0
KWA1 090505Z 18004KT 06/05 A3034 RMK A01 T00600054  RH  096%=      5-min Rain = 0
KWA1 090506Z 18004KT 06/06 A3034 RMK A01 T00600055  RH  096%=      5-min Rain = 0
KWA1 090507Z 18004KT 06/05 A3034 RMK A01 T00600054  RH  096%=      5-min Rain = 0
KWA1 090508Z 18004KT 06/05 A3034 RMK A01 T00600054  RH  096%=      5-min Rain = 0
KWA1 090509Z 18004KT 06/05 A3034 RMK A01 T00590053  RH  096%=      5-min Rain = 0
KWA1 090510Z 17005KT 06/05 A3034 RMK A01 T00590052  RH  096%=      5-min Rain = 0
KWA1 090511Z 17005KT 06/05 A3034 RMK A01 T00580052  RH  096%=      5-min Rain = 0
KWA1 090512Z 17005KT 06/05 A3034 RMK A01 T00580051  RH  096%=      5-min Rain = 0
KWA1 090513Z 17005KT 06/05 A3034 RMK A01 T00580051  RH  096%=      5-min Rain = 0
KWA1 090514Z 17005KT 06/05 A3034 RMK A01 T00580052  RH  096%=      5-min Rain = 0
KWA1 090515Z 17005KT 06/05 A3034 RMK A01 T00570052  RH  096%=      5-min Rain = 0
KWA1 090516Z 17005KT 06/05 A3034 RMK A01 T00580052  RH  096%=      5-min Rain = 0
KWA1 090517Z 17005KT 06/05 A3034 RMK A01 T00580053  RH  096%=      5-min Rain = 0
KWA1 090518Z 17005KT 06/05 A3034 RMK A01 T00580053  RH  096%=      5-min Rain = 0
KWA1 090519Z 18005KT 06/05 A3034 RMK A01 T00580053  RH  096%=      5-min Rain = 0
KWA1 090520Z 18005KT 06/05 A3034 RMK A01 T00580053  RH  096%=      5-min Rain = 0
KWA1 090521Z 18005KT 06/05 A3034 RMK A01 T00590054  RH  097%=      5-min Rain = 0
KWA1 090522Z 18004KT 06/05 A3034 RMK A01 T00590054  RH  096%=      5-min Rain = 0
KWA1 090523Z 18004KT 06/05 A3034 RMK A01 T00590054  RH  096%=      5-min Rain = 0
KWA1 090524Z 18004KT 06/05 A3034 RMK A01 T00590054  RH  096%=      5-min Rain = 0
KWA1 090525Z 19004KT 06/05 A3034 RMK A01 T00590054  RH  096%=      5-min Rain = 0
KWA1 090526Z 19004KT 06/05 A3034 RMK A01 T00590054  RH  096%=      5-min Rain = 0
KWA1 090527Z 19004KT 06/05 A3034 RMK A01 T00590054  RH  096%=      5-min Rain = 0
KWA1 090528Z 19004KT 06/05 A3034 RMK A01 T00590054  RH  096%=      5-min Rain = 0
KWA1 090529Z 19004KT 06/05 A3034 RMK A01 T00590053  RH  096%=      5-min Rain = 0
KWA1 090530Z 19004KT 06/05 A3034 RMK A01 T00590053  RH  096%=      5-min Rain = 0
KWA1 090531Z 19005KT 06/05 A3034 RMK A01 T00590053  RH  096%=      5-min Rain = 0
KWA1 090532Z 19005KT 06/05 A3034 RMK A01 T00590053  RH  096%=      5-min Rain = 0
KWA1 090533Z 19004KT 06/05 A3034 RMK A01 T00590053  RH  096%=      5-min Rain = 0
KWA1 090534Z 20004KT 06/05 A3034 RMK A01 T00590054  RH  096%=      5-min Rain = 0
KWA1 090535Z 20004KT 06/05 A3034 RMK A01 T00590054  RH  096%=      5-min Rain = 0
KWA1 090536Z 20004KT 06/05 A3034 RMK A01 T00590053  RH  096%=      5-min Rain = 0
KWA1 090537Z 20004KT 06/05 A3034 RMK A01 T00590053  RH  096%=      5-min Rain = 0
KWA1 090538Z 20004KT 06/05 A3034 RMK A01 T00590053  RH  096%=      5-min Rain = 0
KWA1 090539Z 20004KT 06/05 A3034 RMK A01 T00590053  RH  096%=      5-min Rain = 0
KWA1 090540Z 20005KT 06/05 A3034 RMK A01 T00590053  RH  096%=      5-min Rain = 0
KWA1 090541Z 20005KT 06/05 A3034 RMK A01 T00580053  RH  096%=      5-min Rain = 0
KWA1 090542Z 20006KT 06/05 A3034 RMK A01 T00590053  RH  096%=      5-min Rain = 0
KWA1 090543Z 20006KT 06/05 A3034 RMK A01 T00580053  RH  096%=      5-min Rain = 0
KWA1 090544Z 20006KT 06/05 A3034 RMK A01 T00590054  RH  097%=      5-min Rain = 0
KWA1 090545Z 21006KT 06/06 A3034 RMK A01 T00600055  RH  097%=      5-min Rain = 0
KWA1 090546Z 20006KT 06/06 A3034 RMK A01 T00600055  RH  097%=      5-min Rain = 0
KWA1 090547Z 21005KT 06/06 A3034 RMK A01 T00600055  RH  096%=      5-min Rain = 0
KWA1 090548Z 21005KT 06/06 A3034 RMK A01 T00610055  RH  096%=      5-min Rain = 0
KWA1 090549Z 21005KT 06/06 A3034 RMK A01 T00610055  RH  096%=      5-min Rain = 0
KWA1 090550Z 21005KT 06/06 A3034 RMK A01 T00610055  RH  096%=      5-min Rain = 0
KWA1 090551Z 21005KT 06/06 A3034 RMK A01 T00610055  RH  096%=      5-min Rain = 0
KWA1 090552Z 22005KT 06/06 A3034 RMK A01 T00610055  RH  096%=      5-min Rain = 0
KWA1 090553Z 23005KT 06/06 A3034 RMK A01 T00610055  RH  096%=      5-min Rain = 0
KWA1 090554Z 23005KT 06/06 A3034 RMK A01 T00610055  RH  096%=      5-min Rain = 0
KWA1 090555Z 23005KT 06/06 A3034 RMK A01 T00610055  RH  096%=      5-min Rain = 0
KWA1 090556Z 23005KT 06/06 A3034 RMK A01 T00610055  RH  096%=      5-min Rain = 0
KWA1 090557Z 23004KT 06/06 A3034 RMK A01 T00610055  RH  096%=      5-min Rain = 0
KWA1 090558Z 23004KT 06/06 A3034 RMK A01 T00610055  RH  096%=      5-min Rain = 0
KWA1 090559Z 23004KT 06/05 A3034 RMK A01 T00610054  RH  096%=      5-min Rain = 0

Page generated in 0.078 seconds.